Observation data for Welch on 05/25/2019      Previous  Date  Next       Current Mesonet Observations  Soil Data  Daily Summary Page  Observations in Plain Language
KWE2 250500Z 16007KT 22/18 A2998 RMK A01 T02160184  RH  082%=      5-min Rain = 0
KWE2 250501Z 16007KT 22/18 A2998 RMK A01 T02150184  RH  082%=      5-min Rain = 0
KWE2 250502Z 16006KT 22/18 A2998 RMK A01 T02150184  RH  082%=      5-min Rain = 0
KWE2 250503Z 16007KT 22/18 A2998 RMK A01 T02150184  RH  083%=      5-min Rain = 0
KWE2 250504Z 16007KT 22/19 A2998 RMK A01 T02150185  RH  083%=      5-min Rain = 0
KWE2 250505Z 16007KT 22/19 A2998 RMK A01 T02150185  RH  083%=      5-min Rain = 0
KWE2 250506Z 16007KT 21/19 A2998 RMK A01 T02140185  RH  083%=      5-min Rain = 0
KWE2 250507Z 16007KT 21/19 A2998 RMK A01 T02140185  RH  083%=      5-min Rain = 0
KWE2 250508Z 16007KT 21/19 A2998 RMK A01 T02140185  RH  083%=      5-min Rain = 0
KWE2 250509Z 16007KT 22/19 A2998 RMK A01 T02150185  RH  083%=      5-min Rain = 0
KWE2 250510Z 15007KT 21/19 A2998 RMK A01 T02140185  RH  083%=      5-min Rain = 0
KWE2 250511Z 15007KT 21/19 A2998 RMK A01 T02140185  RH  084%=      5-min Rain = 0
KWE2 250512Z 15007KT 21/19 A2998 RMK A01 T02130185  RH  084%=      5-min Rain = 0
KWE2 250513Z 15007KT 21/19 A2998 RMK A01 T02130185  RH  084%=      5-min Rain = 0
KWE2 250514Z 15007KT 21/19 A2998 RMK A01 T02120185  RH  084%=      5-min Rain = 0
KWE2 250515Z 15007KT 21/19 A2998 RMK A01 T02120185  RH  084%=      5-min Rain = 0
KWE2 250516Z 15007KT 21/19 A2998 RMK A01 T02120185  RH  084%=      5-min Rain = 0
KWE2 250517Z 15008KT 21/19 A2997 RMK A01 T02120185  RH  084%=      5-min Rain = 0
KWE2 250518Z 15007KT 21/19 A2997 RMK A01 T02120185  RH  085%=      5-min Rain = 0
KWE2 250519Z 15007KT 21/19 A2997 RMK A01 T02110185  RH  085%=      5-min Rain = 0
KWE2 250520Z 15007KT 21/19 A2997 RMK A01 T02110185  RH  085%=      5-min Rain = 0
KWE2 250521Z 15007KT 21/18 A2997 RMK A01 T02100184  RH  085%=      5-min Rain = 0
KWE2 250522Z 15006KT 21/19 A2997 RMK A01 T02100185  RH  085%=      5-min Rain = 0
KWE2 250523Z 14006KT 21/18 A2997 RMK A01 T02090184  RH  086%=      5-min Rain = 0
KWE2 250524Z 14006KT 21/18 A2997 RMK A01 T02080184  RH  086%=      5-min Rain = 0
KWE2 250525Z 14006KT 21/18 A2997 RMK A01 T02080184  RH  086%=      5-min Rain = 0
KWE2 250526Z 14006KT 21/18 A2997 RMK A01 T02070184  RH  086%=      5-min Rain = 0
KWE2 250527Z 14006KT 21/18 A2997 RMK A01 T02070184  RH  087%=      5-min Rain = 0
KWE2 250528Z 14006KT 21/18 A2997 RMK A01 T02060184  RH  087%=      5-min Rain = 0
KWE2 250529Z 14006KT 21/18 A2997 RMK A01 T02050184  RH  087%=      5-min Rain = 0
KWE2 250530Z 14006KT 21/18 A2997 RMK A01 T02050184  RH  088%=      5-min Rain = 0
KWE2 250531Z 14006KT 21/18 A2997 RMK A01 T02050184  RH  088%=      5-min Rain = 0
KWE2 250532Z 14006KT 20/18 A2997 RMK A01 T02040184  RH  088%=      5-min Rain = 0
KWE2 250533Z 13006KT 20/18 A2997 RMK A01 T02040184  RH  088%=      5-min Rain = 0
KWE2 250534Z 13006KT 20/18 A2997 RMK A01 T02040184  RH  089%=      5-min Rain = 0
KWE2 250535Z 13006KT 20/18 A2997 RMK A01 T02040184  RH  089%=      5-min Rain = 0
KWE2 250536Z 13006KT 20/19 A2997 RMK A01 T02040185  RH  089%=      5-min Rain = 0
KWE2 250537Z 13006KT 20/19 A2997 RMK A01 T02030185  RH  089%=      5-min Rain = 0
KWE2 250538Z 13006KT 20/19 A2997 RMK A01 T02030185  RH  089%=      5-min Rain = 0
KWE2 250539Z 13006KT 20/19 A2997 RMK A01 T02030185  RH  089%=      5-min Rain = 0
KWE2 250540Z 13006KT 20/19 A2997 RMK A01 T02030185  RH  090%=      5-min Rain = 0
KWE2 250541Z 13006KT 20/19 A2997 RMK A01 T02030185  RH  090%=      5-min Rain = 0
KWE2 250542Z 12006KT 20/19 A2997 RMK A01 T02030186  RH  090%=      5-min Rain = 0
KWE2 250543Z 12006KT 20/19 A2997 RMK A01 T02020186  RH  090%=      5-min Rain = 0
KWE2 250544Z 13006KT 20/19 A2997 RMK A01 T02020186  RH  091%=      5-min Rain = 0
KWE2 250545Z 13006KT 20/19 A2997 RMK A01 T02010186  RH  091%=      5-min Rain = 0
KWE2 250546Z 12006KT 20/19 A2997 RMK A01 T02010187  RH  091%=      5-min Rain = 0
KWE2 250547Z 12006KT 20/19 A2997 RMK A01 T02010187  RH  092%=      5-min Rain = 0
KWE2 250548Z 12005KT 20/19 A2997 RMK A01 T02000187  RH  092%=      5-min Rain = 0
KWE2 250549Z 12005KT 20/19 A2997 RMK A01 T02000187  RH  093%=      5-min Rain = 0
KWE2 250550Z 11005KT 20/19 A2997 RMK A01 T02000188  RH  093%=      5-min Rain = 0
KWE2 250551Z 11004KT 20/19 A2997 RMK A01 T01990187  RH  093%=      5-min Rain = 0
KWE2 250552Z 12005KT 20/19 A2997 RMK A01 T01980187  RH  093%=      5-min Rain = 0
KWE2 250553Z 12004KT 20/19 A2997 RMK A01 T01980187  RH  094%=      5-min Rain = 0
KWE2 250554Z 12004KT 20/19 A2998 RMK A01 T01970187  RH  094%=      5-min Rain = 0
KWE2 250555Z 12004KT 20/19 A2998 RMK A01 T01970188  RH  094%=      5-min Rain = 0
KWE2 250556Z 12004KT 20/19 A2998 RMK A01 T01970188  RH  095%=      5-min Rain = 0
KWE2 250557Z 12004KT 20/19 A2997 RMK A01 T01960188  RH  095%=      5-min Rain = 0
KWE2 250558Z 12004KT 20/19 A2997 RMK A01 T01970188  RH  095%=      5-min Rain = 0
KWE2 250559Z 11004KT 20/19 A2997 RMK A01 T01970189  RH  095%=      5-min Rain = 0
KWE2 250600Z 11004KT 20/19 A2997 RMK A01 T01970189  RH  095%=      5-min Rain = 0
KWE2 250601Z 11004KT 20/19 A2997 RMK A01 T01970188  RH  095%=      5-min Rain = 0
KWE2 250602Z 12004KT 20/19 A2997 RMK A01 T01970188  RH  095%=      5-min Rain = 0
KWE2 250603Z 12004KT 20/19 A2997 RMK A01 T01970189  RH  095%=      5-min Rain = 0
KWE2 250604Z 11003KT 20/19 A2997 RMK A01 T01970188  RH  095%=      5-min Rain = 0
KWE2 250605Z 11003KT 20/19 A2997 RMK A01 T01970189  RH  095%=      5-min Rain = 0
KWE2 250606Z 11003KT 20/19 A2997 RMK A01 T01960188  RH  095%=      5-min Rain = 0
KWE2 250607Z 11003KT 20/19 A2997 RMK A01 T01960189  RH  095%=      5-min Rain = 0
KWE2 250608Z 10003KT 20/19 A2997 RMK A01 T01960189  RH  095%=      5-min Rain = 0
KWE2 250609Z 10003KT 20/19 A2997 RMK A01 T01970189  RH  095%=      5-min Rain = 0
KWE2 250610Z 10003KT 20/19 A2997 RMK A01 T01960189  RH  096%=      5-min Rain = 0
KWE2 250611Z 10003KT 20/19 A2997 RMK A01 T01970190  RH  096%=      5-min Rain = 0
KWE2 250612Z 10003KT 20/19 A2997 RMK A01 T01970190  RH  096%=      5-min Rain = 0
KWE2 250613Z 10004KT 20/19 A2997 RMK A01 T01970190  RH  096%=      5-min Rain = 0
KWE2 250614Z 10003KT 20/19 A2997 RMK A01 T01970190  RH  096%=      5-min Rain = 0
KWE2 250615Z 10003KT 20/19 A2997 RMK A01 T01980190  RH  095%=      5-min Rain = 0
KWE2 250616Z 10003KT 20/19 A2997 RMK A01 T01980190  RH  095%=      5-min Rain = 0
KWE2 250617Z 10003KT 20/19 A2997 RMK A01 T01980190  RH  095%=      5-min Rain = 0
KWE2 250618Z 09003KT 20/19 A2997 RMK A01 T01980190  RH  095%=      5-min Rain = 0
KWE2 250619Z 09004KT 20/19 A2997 RMK A01 T01980190  RH  095%=      5-min Rain = 0
KWE2 250620Z 09004KT 20/19 A2997 RMK A01 T01980190  RH  095%=      5-min Rain = 0
KWE2 250621Z 09004KT 20/19 A2997 RMK A01 T01980190  RH  095%=      5-min Rain = 0
KWE2 250622Z 09004KT 20/19 A2997 RMK A01 T01980190  RH  095%=      5-min Rain = 0
KWE2 250623Z 10004KT 20/19 A2997 RMK A01 T01980189  RH  095%=      5-min Rain = 0
KWE2 250624Z 10005KT 20/19 A2997 RMK A01 T01970189  RH  095%=      5-min Rain = 0
KWE2 250625Z 10005KT 20/19 A2997 RMK A01 T01970189  RH  095%=      5-min Rain = 0
KWE2 250626Z 10005KT 20/19 A2997 RMK A01 T01970190  RH  096%=      5-min Rain = 0
KWE2 250627Z 10005KT 20/19 A2997 RMK A01 T01970190  RH  096%=      5-min Rain = 0
KWE2 250628Z 10006KT 20/19 A2997 RMK A01 T01970190  RH  096%=      5-min Rain = 0
KWE2 250629Z 10006KT 20/19 A2997 RMK A01 T01970190  RH  096%=      5-min Rain = 0
KWE2 250630Z 10006KT 20/19 A2997 RMK A01 T01970190  RH  096%=      5-min Rain = 0
KWE2 250631Z 10006KT 20/19 A2997 RMK A01 T01980191  RH  096%=      5-min Rain = 0
KWE2 250632Z 10006KT 20/19 A2997 RMK A01 T01980190  RH  095%=      5-min Rain = 0
KWE2 250633Z 10006KT 20/19 A2997 RMK A01 T01980190  RH  095%=      5-min Rain = 0
KWE2 250634Z 10006KT 20/19 A2997 RMK A01 T01980190  RH  095%=      5-min Rain = 0
KWE2 250635Z 10006KT 20/19 A2997 RMK A01 T01980190  RH  095%=      5-min Rain = 0
KWE2 250636Z 10006KT 20/19 A2997 RMK A01 T01980190  RH  095%=      5-min Rain = 0
KWE2 250637Z 10006KT 20/19 A2997 RMK A01 T01980190  RH  095%=      5-min Rain = 0
KWE2 250638Z 10005KT 20/19 A2997 RMK A01 T01980190  RH  095%=      5-min Rain = 0
KWE2 250639Z 10005KT 20/19 A2997 RMK A01 T01980190  RH  095%=      5-min Rain = 0
KWE2 250640Z 10006KT 20/19 A2997 RMK A01 T01980190  RH  095%=      5-min Rain = 0
KWE2 250641Z 10006KT 20/19 A2997 RMK A01 T01980190  RH  095%=      5-min Rain = 0
KWE2 250642Z 10006KT 20/19 A2997 RMK A01 T01980190  RH  095%=      5-min Rain = 0
KWE2 250643Z 11007KT 20/19 A2996 RMK A01 T01980190  RH  095%=      5-min Rain = 0
KWE2 250644Z 11007KT 20/19 A2996 RMK A01 T01970190  RH  095%=      5-min Rain = 0
KWE2 250645Z 11007KT 20/19 A2996 RMK A01 T01970190  RH  096%=      5-min Rain = 0
KWE2 250646Z 11007KT 20/19 A2996 RMK A01 T01970190  RH  096%=      5-min Rain = 0
KWE2 250647Z 11007KT 20/19 A2996 RMK A01 T01960190  RH  096%=      5-min Rain = 0
KWE2 250648Z 11006KT 20/19 A2996 RMK A01 T01970191  RH  096%=      5-min Rain = 0
KWE2 250649Z 11006KT 20/19 A2996 RMK A01 T01960191  RH  096%=      5-min Rain = 0
KWE2 250650Z 11006KT 20/19 A2996 RMK A01 T01970191  RH  097%=      5-min Rain = 0
KWE2 250651Z 11007KT 20/19 A2996 RMK A01 T01970191  RH  097%=      5-min Rain = 0
KWE2 250652Z 11007KT 20/19 A2996 RMK A01 T01980192  RH  097%=      5-min Rain = 0
KWE2 250653Z 10007KT 20/19 A2996 RMK A01 T01980192  RH  096%=      5-min Rain = 0
KWE2 250654Z 11006KT 20/19 A2996 RMK A01 T01990192  RH  096%=      5-min Rain = 0
KWE2 250655Z 11007KT 20/19 A2996 RMK A01 T01990192  RH  095%=      5-min Rain = 0
KWE2 250656Z 11007KT 20/19 A2996 RMK A01 T01990191  RH  095%=      5-min Rain = 0
KWE2 250657Z 10006KT 20/19 A2996 RMK A01 T01990191  RH  095%=      5-min Rain = 0
KWE2 250658Z 10006KT 20/19 A2996 RMK A01 T01990191  RH  095%=      5-min Rain = 0
KWE2 250659Z 11006KT 20/19 A2996 RMK A01 T01990192  RH  095%=      5-min Rain = 0
KWE2 250700Z 10006KT 20/19 A2996 RMK A01 T01990192  RH  095%=      5-min Rain = 0
KWE2 250701Z 11006KT 20/19 A2996 RMK A01 T01990192  RH  096%=      5-min Rain = 0
KWE2 250702Z 11005KT 20/19 A2996 RMK A01 T01990192  RH  096%=      5-min Rain = 0
KWE2 250703Z 10004KT 20/19 A2996 RMK A01 T01990192  RH  096%=      5-min Rain = 0
KWE2 250704Z 10004KT 20/19 A2996 RMK A01 T01980191  RH  096%=      5-min Rain = 0
KWE2 250705Z 10005KT 20/19 A2996 RMK A01 T01980191  RH  096%=      5-min Rain = 0
KWE2 250706Z 10005KT 20/19 A2996 RMK A01 T01980191  RH  096%=      5-min Rain = 0
KWE2 250707Z 10005KT 20/19 A2996 RMK A01 T01980191  RH  096%=      5-min Rain = 0
KWE2 250708Z 10005KT 20/19 A2996 RMK A01 T01980191  RH  096%=      5-min Rain = 0
KWE2 250709Z 10005KT 20/19 A2996 RMK A01 T01980191  RH  096%=      5-min Rain = 0
KWE2 250710Z 10005KT 20/19 A2996 RMK A01 T01980191  RH  096%=      5-min Rain = 0
KWE2 250711Z 10005KT 20/19 A2996 RMK A01 T01980191  RH  096%=      5-min Rain = 0
KWE2 250712Z 10005KT 20/19 A2996 RMK A01 T01980191  RH  096%=      5-min Rain = 0
KWE2 250713Z 10006KT 20/19 A2996 RMK A01 T01970191  RH  096%=      5-min Rain = 0
KWE2 250714Z 10006KT 20/19 A2996 RMK A01 T01970192  RH  097%=      5-min Rain = 0
KWE2 250715Z 10006KT 20/19 A2996 RMK A01 T01970192  RH  097%=      5-min Rain = 0
KWE2 250716Z 10006KT 20/19 A2996 RMK A01 T01970192  RH  097%=      5-min Rain = 0
KWE2 250717Z 10006KT 20/19 A2996 RMK A01 T01970192  RH  097%=      5-min Rain = 0
KWE2 250718Z 10006KT 20/19 A2996 RMK A01 T01970192  RH  097%=      5-min Rain = 0
KWE2 250719Z 10006KT 20/19 A2995 RMK A01 T01970191  RH  097%=      5-min Rain = 0
KWE2 250720Z 10006KT 20/19 A2995 RMK A01 T01970192  RH  097%=      5-min Rain = 0
KWE2 250721Z 10006KT 20/19 A2995 RMK A01 T01960191  RH  097%=      5-min Rain = 0
KWE2 250722Z 10006KT 20/19 A2995 RMK A01 T01960192  RH  097%=      5-min Rain = 0
KWE2 250723Z 10006KT 20/19 A2995 RMK A01 T01970192  RH  097%=      5-min Rain = 0
KWE2 250724Z 10005KT 20/19 A2995 RMK A01 T01960191  RH  097%=      5-min Rain = 0
KWE2 250725Z 10005KT 20/19 A2995 RMK A01 T01960191  RH  097%=      5-min Rain = 0
KWE2 250726Z 10005KT 20/19 A2996 RMK A01 T01950191  RH  097%=      5-min Rain = 0
KWE2 250727Z 10006KT 20/19 A2996 RMK A01 T01950191  RH  097%=      5-min Rain = 0
KWE2 250728Z 10006KT 20/19 A2996 RMK A01 T01950192  RH  098%=      5-min Rain = 0
KWE2 250729Z 10006KT 20/19 A2996 RMK A01 T01950192  RH  098%=      5-min Rain = 0
KWE2 250730Z 10005KT 20/19 A2996 RMK A01 T01950191  RH  098%=      5-min Rain = 0
KWE2 250731Z 10006KT 20/19 A2996 RMK A01 T01950191  RH  098%=      5-min Rain = 0
KWE2 250732Z 10005KT 20/19 A2996 RMK A01 T01950191  RH  098%=      5-min Rain = 0
KWE2 250733Z 10006KT 19/19 A2996 RMK A01 T01940191  RH  098%=      5-min Rain = 0
KWE2 250734Z 10006KT 19/19 A2996 RMK A01 T01940191  RH  098%=      5-min Rain = 0
KWE2 250735Z 10006KT 19/19 A2996 RMK A01 T01940191  RH  098%=      5-min Rain = 0
KWE2 250736Z 10006KT 19/19 A2996 RMK A01 T01940191  RH  098%=      5-min Rain = 0
KWE2 250737Z 10006KT 19/19 A2996 RMK A01 T01940191  RH  098%=      5-min Rain = 0
KWE2 250738Z 10006KT 19/19 A2996 RMK A01 T01940191  RH  098%=      5-min Rain = 0
KWE2 250739Z 10006KT 19/19 A2996 RMK A01 T01940191  RH  098%=      5-min Rain = 0
KWE2 250740Z 10005KT 19/19 A2996 RMK A01 T01940191  RH  098%=      5-min Rain = 0
KWE2 250741Z 10005KT 19/19 A2996 RMK A01 T01940190  RH  098%=      5-min Rain = 0
KWE2 250742Z 10006KT 19/19 A2996 RMK A01 T01940191  RH  098%=      5-min Rain = 0
KWE2 250743Z 10006KT 19/19 A2996 RMK A01 T01940191  RH  098%=      5-min Rain = 0
KWE2 250744Z 10007KT 19/19 A2996 RMK A01 T01940191  RH  098%=      5-min Rain = 0
KWE2 250745Z 10006KT 19/19 A2995 RMK A01 T01940191  RH  098%=      5-min Rain = 0
KWE2 250746Z 10007KT 19/19 A2995 RMK A01 T01940191  RH  098%=      5-min Rain = 0
KWE2 250747Z 10006KT 19/19 A2995 RMK A01 T01940191  RH  098%=      5-min Rain = 0
KWE2 250748Z 09007KT 20/19 A2995 RMK A01 T01950191  RH  098%=      5-min Rain = 0
KWE2 250749Z 10005KT 19/19 A2995 RMK A01 T01940191  RH  098%=      5-min Rain = 0
KWE2 250750Z 10006KT 20/19 A2995 RMK A01 T01950191  RH  098%=      5-min Rain = 0
KWE2 250751Z 10007KT 19/19 A2995 RMK A01 T01940191  RH  098%=      5-min Rain = 0
KWE2 250752Z 10006KT 19/19 A2995 RMK A01 T01940191  RH  098%=      5-min Rain = 0
KWE2 250753Z 10006KT 20/19 A2995 RMK A01 T01950192  RH  098%=      5-min Rain = 0
KWE2 250754Z 10008KT 20/19 A2995 RMK A01 T01950192  RH  098%=      5-min Rain = 0
KWE2 250755Z 10008KT 20/19 A2995 RMK A01 T01950192  RH  098%=      5-min Rain = 0
KWE2 250756Z 10007KT 20/19 A2995 RMK A01 T01960193  RH  098%=      5-min Rain = 0
KWE2 250757Z 10008KT 20/19 A2995 RMK A01 T01970192  RH  097%=      5-min Rain = 0
KWE2 250758Z 10008KT 20/19 A2995 RMK A01 T01970192  RH  097%=      5-min Rain = 0
KWE2 250759Z 10008KT 20/19 A2995 RMK A01 T01970192  RH  097%=      5-min Rain = 0
KWE2 250800Z 10007KT 20/19 A2995 RMK A01 T01980193  RH  097%=      5-min Rain = 0
KWE2 250801Z 10008KT 20/19 A2995 RMK A01 T01980193  RH  097%=      5-min Rain = 0
KWE2 250802Z 10008KT 20/19 A2995 RMK A01 T01980193  RH  097%=      5-min Rain = 0
KWE2 250803Z 10009KT 20/19 A2995 RMK A01 T01990193  RH  096%=      5-min Rain = 0
KWE2 250804Z 10009KT 20/19 A2995 RMK A01 T01990193  RH  096%=      5-min Rain = 0
KWE2 250805Z 10009KT 20/19 A2995 RMK A01 T02000193  RH  096%=      5-min Rain = 0
KWE2 250806Z 11008KT 20/19 A2995 RMK A01 T02000192  RH  096%=      5-min Rain = 0
KWE2 250807Z 10009KT 20/19 A2995 RMK A01 T02000193  RH  096%=      5-min Rain = 0
KWE2 250808Z 11008KT 20/19 A2995 RMK A01 T02000193  RH  095%=      5-min Rain = 0
KWE2 250809Z 11008KT 20/19 A2995 RMK A01 T02000193  RH  095%=      5-min Rain = 0
KWE2 250810Z 11008KT 20/19 A2995 RMK A01 T02000193  RH  095%=      5-min Rain = 0
KWE2 250811Z 11008KT 20/19 A2995 RMK A01 T02010193  RH  095%=      5-min Rain = 0
KWE2 250812Z 11009KT 20/19 A2995 RMK A01 T02010193  RH  095%=      5-min Rain = 0
KWE2 250813Z 11008KT 20/19 A2995 RMK A01 T02010193  RH  095%=      5-min Rain = 0
KWE2 250814Z 11009KT 20/19 A2995 RMK A01 T02020193  RH  095%=      5-min Rain = 0
KWE2 250815Z 11008KT 20/19 A2994 RMK A01 T02020193  RH  095%=      5-min Rain = 0
KWE2 250816Z 11008KT 20/19 A2994 RMK A01 T02020193  RH  095%=      5-min Rain = 0
KWE2 250817Z 12008KT 20/19 A2994 RMK A01 T02020194  RH  095%=      5-min Rain = 0
KWE2 250818Z 12008KT 20/19 A2995 RMK A01 T02020193  RH  095%=      5-min Rain = 0
KWE2 250819Z 12008KT 20/19 A2995 RMK A01 T02020194  RH  095%=      5-min Rain = 0
KWE2 250820Z 11008KT 20/19 A2995 RMK A01 T02030194  RH  095%=      5-min Rain = 0
KWE2 250821Z 12008KT 20/19 A2994 RMK A01 T02030194  RH  095%=      5-min Rain = 0
KWE2 250822Z 11009KT 20/19 A2994 RMK A01 T02030194  RH  094%=      5-min Rain = 0
KWE2 250823Z 11009KT 20/19 A2994 RMK A01 T02040194  RH  094%=      5-min Rain = 0
KWE2 250824Z 11009KT 20/19 A2994 RMK A01 T02040194  RH  094%=      5-min Rain = 0
KWE2 250825Z 12009KT 20/19 A2994 RMK A01 T02040194  RH  094%=      5-min Rain = 0
KWE2 250826Z 11010KT 20/19 A2994 RMK A01 T02040194  RH  094%=      5-min Rain = 0
KWE2 250827Z 12008KT 21/19 A2994 RMK A01 T02050194  RH  094%=      5-min Rain = 0
KWE2 250828Z 11009KT 21/19 A2994 RMK A01 T02050194  RH  094%=      5-min Rain = 0
KWE2 250829Z 11010KT 21/19 A2994 RMK A01 T02050194  RH  094%=      5-min Rain = 0
KWE2 250830Z 12009KT 21/19 A2994 RMK A01 T02050194  RH  093%=      5-min Rain = 0
KWE2 250831Z 11008KT 21/19 A2994 RMK A01 T02050194  RH  093%=      5-min Rain = 0
KWE2 250832Z 12008KT 21/19 A2994 RMK A01 T02050194  RH  093%=      5-min Rain = 0
KWE2 250833Z 12009KT 21/19 A2994 RMK A01 T02060194  RH  093%=      5-min Rain = 0
KWE2 250834Z 12009KT 21/19 A2994 RMK A01 T02060194  RH  093%=      5-min Rain = 0
KWE2 250835Z 11009KT 21/19 A2994 RMK A01 T02050194  RH  093%=      5-min Rain = 0
KWE2 250836Z 12009KT 21/20 A2994 RMK A01 T02060195  RH  093%=      5-min Rain = 0
KWE2 250837Z 12009KT 21/19 A2994 RMK A01 T02060194  RH  093%=      5-min Rain = 0
KWE2 250838Z 12008KT 21/20 A2994 RMK A01 T02060195  RH  093%=      5-min Rain = 0
KWE2 250839Z 11008KT 21/20 A2994 RMK A01 T02070195  RH  093%=      5-min Rain = 0
KWE2 250840Z 12009KT 21/20 A2994 RMK A01 T02060195  RH  093%=      5-min Rain = 0
KWE2 250841Z 12009KT 21/20 A2994 RMK A01 T02070195  RH  093%=      5-min Rain = 0
KWE2 250842Z 12010KT 21/20 A2994 RMK A01 T02070195  RH  093%=      5-min Rain = 0
KWE2 250843Z 12009KT 21/19 A2994 RMK A01 T02070194  RH  092%=      5-min Rain = 0
KWE2 250844Z 12009KT 21/19 A2994 RMK A01 T02070194  RH  092%=      5-min Rain = 0
KWE2 250845Z 12008KT 21/19 A2994 RMK A01 T02070194  RH  092%=      5-min Rain = 0
KWE2 250846Z 12010KT 21/20 A2994 RMK A01 T02070195  RH  092%=      5-min Rain = 0
KWE2 250847Z 12008KT 21/20 A2994 RMK A01 T02070195  RH  092%=      5-min Rain = 0
KWE2 250848Z 12008KT 21/20 A2994 RMK A01 T02070195  RH  093%=      5-min Rain = 0
KWE2 250849Z 12009KT 21/20 A2994 RMK A01 T02080195  RH  093%=      5-min Rain = 0
KWE2 250850Z 12008KT 21/20 A2994 RMK A01 T02080195  RH  092%=      5-min Rain = 0
KWE2 250851Z 12009KT 21/20 A2994 RMK A01 T02080195  RH  092%=      5-min Rain = 0
KWE2 250852Z 13009KT 21/20 A2994 RMK A01 T02080195  RH  092%=      5-min Rain = 0
KWE2 250853Z 12008KT 21/20 A2994 RMK A01 T02080195  RH  092%=      5-min Rain = 0
KWE2 250854Z 13008KT 21/20 A2994 RMK A01 T02090196  RH  092%=      5-min Rain = 0
KWE2 250855Z 13009KT 21/20 A2994 RMK A01 T02090196  RH  092%=      5-min Rain = 0
KWE2 250856Z 13009KT 21/20 A2994 RMK A01 T02090196  RH  092%=      5-min Rain = 0
KWE2 250857Z 13010KT 21/20 A2994 RMK A01 T02100197  RH  092%=      5-min Rain = 0
KWE2 250858Z 13011KT 21/20 A2994 RMK A01 T02100197  RH  092%=      5-min Rain = 0
KWE2 250859Z 13009KT 21/20 A2994 RMK A01 T02110196  RH  092%=      5-min Rain = 0
KWE2 250900Z 12010KT 21/20 A2994 RMK A01 T02110197  RH  091%=      5-min Rain = 0
KWE2 250901Z 13010KT 21/20 A2994 RMK A01 T02120197  RH  091%=      5-min Rain = 0
KWE2 250902Z 13013KT 21/20 A2994 RMK A01 T02120196  RH  091%=      5-min Rain = 0
KWE2 250903Z 13012KT 21/20 A2994 RMK A01 T02120196  RH  090%=      5-min Rain = 0
KWE2 250904Z 13011KT 21/20 A2995 RMK A01 T02130196  RH  090%=      5-min Rain = 0
KWE2 250905Z 13010KT 21/20 A2995 RMK A01 T02130196  RH  090%=      5-min Rain = 0
KWE2 250906Z 13012KT 21/20 A2995 RMK A01 T02130196  RH  090%=      5-min Rain = 0
KWE2 250907Z 12011KT 21/20 A2995 RMK A01 T02130196  RH  090%=      5-min Rain = 0
KWE2 250908Z 12012KT 21/20 A2995 RMK A01 T02130196  RH  090%=      5-min Rain = 0
KWE2 250909Z 12011KT 21/20 A2994 RMK A01 T02130196  RH  090%=      5-min Rain = 0
KWE2 250910Z 13012KT 21/20 A2994 RMK A01 T02130196  RH  090%=      5-min Rain = 0
KWE2 250911Z 13012KT 21/20 A2994 RMK A01 T02140196  RH  090%=      5-min Rain = 0
KWE2 250912Z 13012KT 21/20 A2995 RMK A01 T02130196  RH  090%=      5-min Rain = 0
KWE2 250913Z 13010KT 21/20 A2995 RMK A01 T02130196  RH  090%=      5-min Rain = 0
KWE2 250914Z 13012KT 21/20 A2995 RMK A01 T02130196  RH  090%=      5-min Rain = 0
KWE2 250915Z 13012KT 21/20 A2995 RMK A01 T02130195  RH  090%=      5-min Rain = 0
KWE2 250916Z 13011KT 21/20 A2995 RMK A01 T02140196  RH  090%=      5-min Rain = 0
KWE2 250917Z 13012KT 21/20 A2995 RMK A01 T02140196  RH  090%=      5-min Rain = 0
KWE2 250918Z 13012KT 21/20 A2995 RMK A01 T02140196  RH  089%=      5-min Rain = 0
KWE2 250919Z 13012KT 21/20 A2995 RMK A01 T02140196  RH  089%=      5-min Rain = 0
KWE2 250920Z 13012KT 21/20 A2995 RMK A01 T02140196  RH  089%=      5-min Rain = 0
KWE2 250921Z 13014KT 21/20 A2995 RMK A01 T02140195  RH  089%=      5-min Rain = 0
KWE2 250922Z 13011KT 21/20 A2995 RMK A01 T02140195  RH  089%=      5-min Rain = 0
KWE2 250923Z 13013KT 21/20 A2994 RMK A01 T02140195  RH  089%=      5-min Rain = 0
KWE2 250924Z 13012KT 21/20 A2994 RMK A01 T02140195  RH  089%=      5-min Rain = 0
KWE2 250925Z 13013KT 21/20 A2994 RMK A01 T02140195  RH  089%=      5-min Rain = 0
KWE2 250926Z 13012KT 21/20 A2994 RMK A01 T02140195  RH  089%=      5-min Rain = 0
KWE2 250927Z 13013KT 21/20 A2994 RMK A01 T02140196  RH  089%=      5-min Rain = 0
KWE2 250928Z 13015KT 21/20 A2994 RMK A01 T02140196  RH  089%=      5-min Rain = 0
KWE2 250929Z 13012KT 21/20 A2994 RMK A01 T02140195  RH  089%=      5-min Rain = 0
KWE2 250930Z 13013KT 21/20 A2995 RMK A01 T02140196  RH  089%=      5-min Rain = 0
KWE2 250931Z 13013KT 21/20 A2995 RMK A01 T02140196  RH  089%=      5-min Rain = 0
KWE2 250932Z 13013KT 21/20 A2995 RMK A01 T02140196  RH  089%=      5-min Rain = 0
KWE2 250933Z 13012KT 21/20 A2995 RMK A01 T02140196  RH  090%=      5-min Rain = 0
KWE2 250934Z 13011KT 21/20 A2995 RMK A01 T02140196  RH  090%=      5-min Rain = 0
KWE2 250935Z 13013KT 21/20 A2995 RMK A01 T02140196  RH  090%=      5-min Rain = 0
KWE2 250936Z 13012KT 21/20 A2995 RMK A01 T02140196  RH  090%=      5-min Rain = 0
KWE2 250937Z 13012KT 21/20 A2995 RMK A01 T02140196  RH  090%=      5-min Rain = 0
KWE2 250938Z 13015KT 21/20 A2995 RMK A01 T02140196  RH  090%=      5-min Rain = 0
KWE2 250939Z 13015KT 21/20 A2995 RMK A01 T02140196  RH  090%=      5-min Rain = 0
KWE2 250940Z 13015KT 21/20 A2995 RMK A01 T02140196  RH  089%=      5-min Rain = 0
KWE2 250941Z 13015KT 21/20 A2995 RMK A01 T02140196  RH  089%=      5-min Rain = 0
KWE2 250942Z 13013KT 21/20 A2995 RMK A01 T02140196  RH  089%=      5-min Rain = 0
KWE2 250943Z 13014KT 21/20 A2995 RMK A01 T02140197  RH  090%=      5-min Rain = 0
KWE2 250944Z 13014KT 21/20 A2995 RMK A01 T02140196  RH  090%=      5-min Rain = 0
KWE2 250945Z 13012KT 21/20 A2995 RMK A01 T02140197  RH  090%=      5-min Rain = 0
KWE2 250946Z 13013KT 21/20 A2995 RMK A01 T02140197  RH  090%=      5-min Rain = 0
KWE2 250947Z 13013KT 21/20 A2995 RMK A01 T02140197  RH  090%=      5-min Rain = 0
KWE2 250948Z 13013KT 21/20 A2995 RMK A01 T02140197  RH  090%=      5-min Rain = 0
KWE2 250949Z 13013KT 21/20 A2995 RMK A01 T02140197  RH  090%=      5-min Rain = 0
KWE2 250950Z 13013KT 21/20 A2995 RMK A01 T02140197  RH  090%=      5-min Rain = 0
KWE2 250951Z 12012KT 21/20 A2995 RMK A01 T02140197  RH  090%=      5-min Rain = 0
KWE2 250952Z 13011KT 21/20 A2995 RMK A01 T02140197  RH  090%=      5-min Rain = 0
KWE2 250953Z 13011KT 21/20 A2995 RMK A01 T02140197  RH  090%=      5-min Rain = 0
KWE2 250954Z 13012KT 21/20 A2995 RMK A01 T02140197  RH  090%=      5-min Rain = 0
KWE2 250955Z 13012KT 21/20 A2995 RMK A01 T02140197  RH  090%=      5-min Rain = 0
KWE2 250956Z 13011KT 21/20 A2995 RMK A01 T02140197  RH  090%=      5-min Rain = 0
KWE2 250957Z 13011KT 21/20 A2995 RMK A01 T02140197  RH  090%=      5-min Rain = 0
KWE2 250958Z 13011KT 21/20 A2995 RMK A01 T02140198  RH  090%=      5-min Rain = 0
KWE2 250959Z 13013KT 21/20 A2995 RMK A01 T02140198  RH  090%=      5-min Rain = 0
KWE2 251000Z 13013KT 21/20 A2995 RMK A01 T02140198  RH  090%=      5-min Rain = 0
KWE2 251001Z 13012KT 21/20 A2995 RMK A01 T02140198  RH  090%=      5-min Rain = 0
KWE2 251002Z 13012KT 21/20 A2995 RMK A01 T02140198  RH  091%=      5-min Rain = 0
KWE2 251003Z 13011KT 21/20 A2995 RMK A01 T02130197  RH  091%=      5-min Rain = 0
KWE2 251004Z 13012KT 21/20 A2995 RMK A01 T02130198  RH  091%=      5-min Rain = 0
KWE2 251005Z 13011KT 21/20 A2995 RMK A01 T02130198  RH  091%=      5-min Rain = 0
KWE2 251006Z 13012KT 21/20 A2995 RMK A01 T02130198  RH  091%=      5-min Rain = 0
KWE2 251007Z 13012KT 21/20 A2995 RMK A01 T02130198  RH  091%=      5-min Rain = 0
KWE2 251008Z 13014KT 21/20 A2995 RMK A01 T02130198  RH  091%=      5-min Rain = 0
KWE2 251009Z 13013KT 21/20 A2995 RMK A01 T02130198  RH  091%=      5-min Rain = 0
KWE2 251010Z 13012KT 21/20 A2996 RMK A01 T02130198  RH  091%=      5-min Rain = 0
KWE2 251011Z 13012KT 21/20 A2996 RMK A01 T02130198  RH  091%=      5-min Rain = 0
KWE2 251012Z 13013KT 21/20 A2996 RMK A01 T02130198  RH  091%=      5-min Rain = 0
KWE2 251013Z 13011KT 21/20 A2996 RMK A01 T02130198  RH  091%=      5-min Rain = 0
KWE2 251014Z 13013KT 21/20 A2996 RMK A01 T02120198  RH  091%=      5-min Rain = 0
KWE2 251015Z 13012KT 21/20 A2996 RMK A01 T02120197  RH  091%=      5-min Rain = 0
KWE2 251016Z 12012KT 21/20 A2996 RMK A01 T02130198  RH  091%=      5-min Rain = 0
KWE2 251017Z 12013KT 21/20 A2995 RMK A01 T02130198  RH  091%=      5-min Rain = 0
KWE2 251018Z 12013KT 21/20 A2995 RMK A01 T02120198  RH  091%=      5-min Rain = 0
KWE2 251019Z 13012KT 21/20 A2995 RMK A01 T02120197  RH  091%=      5-min Rain = 0
KWE2 251020Z 13010KT 21/20 A2996 RMK A01 T02120198  RH  092%=      5-min Rain = 0
KWE2 251021Z 12011KT 21/20 A2995 RMK A01 T02120198  RH  092%=      5-min Rain = 0
KWE2 251022Z 12012KT 21/20 A2995 RMK A01 T02110198  RH  092%=      5-min Rain = 0
KWE2 251023Z 13011KT 21/20 A2996 RMK A01 T02110198  RH  092%=      5-min Rain = 0
KWE2 251024Z 13011KT 21/20 A2996 RMK A01 T02120198  RH  092%=      5-min Rain = 0
KWE2 251025Z 13014KT 21/20 A2996 RMK A01 T02120198  RH  092%=      5-min Rain = 0
KWE2 251026Z 13012KT 21/20 A2996 RMK A01 T02110198  RH  092%=      5-min Rain = 0
KWE2 251027Z 13010KT 21/20 A2996 RMK A01 T02110198  RH  092%=      5-min Rain = 0
KWE2 251028Z 12011KT 21/20 A2996 RMK A01 T02110198  RH  092%=      5-min Rain = 0
KWE2 251029Z 12013KT 21/20 A2996 RMK A01 T02110198  RH  093%=      5-min Rain = 0
KWE2 251030Z 12011KT 21/20 A2996 RMK A01 T02110198  RH  093%=      5-min Rain = 0
KWE2 251031Z 12011KT 21/20 A2996 RMK A01 T02110199  RH  093%=      5-min Rain = 0
KWE2 251032Z 12012KT 21/20 A2996 RMK A01 T02110199  RH  093%=      5-min Rain = 0
KWE2 251033Z 12013KT 21/20 A2996 RMK A01 T02110199  RH  093%=      5-min Rain = 0
KWE2 251034Z 12011KT 21/20 A2996 RMK A01 T02100199  RH  093%=      5-min Rain = 0
KWE2 251035Z 12010KT 21/20 A2996 RMK A01 T02100199  RH  093%=      5-min Rain = 0
KWE2 251036Z 12012KT 21/20 A2996 RMK A01 T02100199  RH  093%=      5-min Rain = 0
KWE2 251037Z 13013KT 21/20 A2996 RMK A01 T02100199  RH  093%=      5-min Rain = 0
KWE2 251038Z 13012KT 21/20 A2996 RMK A01 T02100199  RH  094%=      5-min Rain = 0
KWE2 251039Z 13012KT 21/20 A2996 RMK A01 T02100199  RH  094%=      5-min Rain = 0
KWE2 251040Z 13014KT 21/20 A2996 RMK A01 T02100199  RH  094%=      5-min Rain = 0
KWE2 251041Z 13011KT 21/20 A2996 RMK A01 T02100199  RH  094%=      5-min Rain = 0
KWE2 251042Z 13011KT 21/20 A2996 RMK A01 T02100200  RH  094%=      5-min Rain = 0
KWE2 251043Z 13011KT 21/20 A2996 RMK A01 T02100200  RH  094%=      5-min Rain = 0
KWE2 251044Z 13012KT 21/20 A2996 RMK A01 T02100200  RH  094%=      5-min Rain = 0
KWE2 251045Z 13012KT 21/20 A2996 RMK A01 T02100200  RH  094%=      5-min Rain = 0
KWE2 251046Z 13013KT 21/20 A2996 RMK A01 T02100200  RH  094%=      5-min Rain = 0
KWE2 251047Z 13012KT 21/20 A2996 RMK A01 T02100200  RH  094%=      5-min Rain = 0
KWE2 251048Z 13011KT 21/20 A2996 RMK A01 T02100200  RH  094%=      5-min Rain = 0
KWE2 251049Z 13011KT 21/20 A2996 RMK A01 T02100200  RH  094%=      5-min Rain = 0
KWE2 251050Z 13012KT 21/20 A2996 RMK A01 T02090200  RH  095%=      5-min Rain = 0
KWE2 251051Z 13012KT 21/20 A2996 RMK A01 T02090200  RH  094%=      5-min Rain = 0
KWE2 251052Z 13011KT 21/20 A2997 RMK A01 T02090200  RH  095%=      5-min Rain = 0
KWE2 251053Z 13012KT 21/20 A2997 RMK A01 T02090200  RH  095%=      5-min Rain = 0
KWE2 251054Z 13011KT 21/20 A2997 RMK A01 T02090200  RH  095%=      5-min Rain = 0
KWE2 251055Z 12010KT 21/20 A2997 RMK A01 T02090201  RH  095%=      5-min Rain = 0
KWE2 251056Z 12010KT 21/20 A2997 RMK A01 T02090201  RH  095%=      5-min Rain = 0
KWE2 251057Z 12011KT 21/20 A2997 RMK A01 T02090201  RH  095%=      5-min Rain = 0
KWE2 251058Z 12010KT 21/20 A2997 RMK A01 T02090200  RH  095%=      5-min Rain = 0
KWE2 251059Z 12011KT 21/20 A2997 RMK A01 T02090201  RH  095%=      5-min Rain = 0
KWE2 251100Z 12011KT 21/20 A2997 RMK A01 T02090201  RH  095%=      5-min Rain = 0
KWE2 251101Z 12011KT 21/20 A2997 RMK A01 T02090201  RH  095%=      5-min Rain = 0
KWE2 251102Z 12010KT 21/20 A2997 RMK A01 T02080201  RH  095%=      5-min Rain = 0
KWE2 251103Z 12010KT 21/20 A2997 RMK A01 T02080201  RH  096%=      5-min Rain = 0
KWE2 251104Z 13011KT 21/20 A2997 RMK A01 T02080201  RH  096%=      5-min Rain = 0
KWE2 251105Z 12010KT 21/20 A2997 RMK A01 T02080201  RH  096%=      5-min Rain = 0
KWE2 251106Z 12010KT 21/20 A2997 RMK A01 T02080201  RH  096%=      5-min Rain = 0
KWE2 251107Z 12010KT 21/20 A2997 RMK A01 T02080201  RH  096%=      5-min Rain = 0
KWE2 251108Z 12012KT 21/20 A2997 RMK A01 T02080201  RH  096%=      5-min Rain = 0
KWE2 251109Z 12011KT 21/20 A2997 RMK A01 T02080201  RH  096%=      5-min Rain = 0
KWE2 251110Z 12012KT 21/20 A2997 RMK A01 T02070201  RH  096%=      5-min Rain = 0
KWE2 251111Z 13013KT 21/20 A2997 RMK A01 T02070201  RH  096%=      5-min Rain = 0
KWE2 251112Z 13011KT 21/20 A2997 RMK A01 T02070201  RH  096%=      5-min Rain = 0
KWE2 251113Z 12011KT 21/20 A2997 RMK A01 T02080202  RH  096%=      5-min Rain = 0
KWE2 251114Z 12013KT 21/20 A2997 RMK A01 T02080201  RH  096%=      5-min Rain = 0
KWE2 251115Z 12011KT 21/20 A2997 RMK A01 T02070201  RH  096%=      5-min Rain = 0
KWE2 251116Z 13010KT 21/20 A2997 RMK A01 T02080202  RH  096%=      5-min Rain = 0
KWE2 251117Z 13012KT 21/20 A2997 RMK A01 T02080202  RH  096%=      5-min Rain = 0
KWE2 251118Z 13011KT 21/20 A2997 RMK A01 T02070201  RH  096%=      5-min Rain = 0
KWE2 251119Z 12013KT 21/20 A2997 RMK A01 T02070201  RH  096%=      5-min Rain = 0
KWE2 251120Z 13013KT 21/20 A2997 RMK A01 T02070202  RH  096%=      5-min Rain = 0
KWE2 251121Z 12012KT 21/20 A2997 RMK A01 T02070202  RH  097%=      5-min Rain = 0
KWE2 251122Z 12012KT 21/20 A2997 RMK A01 T02070202  RH  097%=      5-min Rain = 0
KWE2 251123Z 12011KT 21/20 A2997 RMK A01 T02070202  RH  097%=      5-min Rain = 0
KWE2 251124Z 12011KT 21/20 A2997 RMK A01 T02070202  RH  097%=      5-min Rain = 0
KWE2 251125Z 13011KT 21/20 A2997 RMK A01 T02070202  RH  097%=      5-min Rain = 0
KWE2 251126Z 13011KT 21/20 A2997 RMK A01 T02070202  RH  097%=      5-min Rain = 0
KWE2 251127Z 13012KT 21/20 A2997 RMK A01 T02070202  RH  097%=      5-min Rain = 0
KWE2 251128Z 13012KT 21/20 A2997 RMK A01 T02070202  RH  097%=      5-min Rain = 0
KWE2 251129Z 12011KT 21/20 A2997 RMK A01 T02070202  RH  097%=      5-min Rain = 0
KWE2 251130Z 12012KT 21/20 A2997 RMK A01 T02060202  RH  097%=      5-min Rain = 0
KWE2 251131Z 12010KT 21/20 A2997 RMK A01 T02070203  RH  098%=      5-min Rain = 0
KWE2 251132Z 12013KT 21/20 A2997 RMK A01 T02060203  RH  098%=      5-min Rain = 0
KWE2 251133Z 12014KT 21/20 A2997 RMK A01 T02070203  RH  098%=      5-min Rain = 0
KWE2 251134Z 13013KT 21/20 A2997 RMK A01 T02060203  RH  098%=      5-min Rain = 0
KWE2 251135Z 13011KT 21/20 A2997 RMK A01 T02060203  RH  098%=      5-min Rain = 0
KWE2 251136Z 12011KT 21/20 A2997 RMK A01 T02060203  RH  098%=      5-min Rain = 0
KWE2 251137Z 12012KT 21/20 A2998 RMK A01 T02060203  RH  098%=      5-min Rain = 0
KWE2 251138Z 13011KT 21/20 A2997 RMK A01 T02060203  RH  098%=      5-min Rain = 0
KWE2 251139Z 12011KT 21/20 A2998 RMK A01 T02060203  RH  098%=      5-min Rain = 0
KWE2 251140Z 13012KT 21/20 A2998 RMK A01 T02060203  RH  098%=      5-min Rain = 0
KWE2 251141Z 13012KT 21/20 A2998 RMK A01 T02060203  RH  098%=      5-min Rain = 0
KWE2 251142Z 13012KT 21/20 A2998 RMK A01 T02060203  RH  098%=      5-min Rain = 0
KWE2 251143Z 13012KT 21/20 A2998 RMK A01 T02060203  RH  098%=      5-min Rain = 0
KWE2 251144Z 13012KT 21/20 A2998 RMK A01 T02060203  RH  098%=      5-min Rain = 0
KWE2 251145Z 12012KT 21/20 A2998 RMK A01 T02060203  RH  098%=      5-min Rain = 0
KWE2 251146Z 13013KT 21/20 A2998 RMK A01 T02060203  RH  098%=      5-min Rain = 0
KWE2 251147Z 13014KT 21/20 A2998 RMK A01 T02060203  RH  098%=      5-min Rain = 0
KWE2 251148Z 13013KT 21/20 A2998 RMK A01 T02060203  RH  098%=      5-min Rain = 0
KWE2 251149Z 13011KT 21/20 A2998 RMK A01 T02060203  RH  098%=      5-min Rain = 0
KWE2 251150Z 13012KT 21/20 A2998 RMK A01 T02060203  RH  098%=      5-min Rain = 0
KWE2 251151Z 13013KT 21/20 A2998 RMK A01 T02060203  RH  098%=      5-min Rain = 0
KWE2 251152Z 13012KT 21/20 A2998 RMK A01 T02060203  RH  098%=      5-min Rain = 0
KWE2 251153Z 13012KT 21/20 A2998 RMK A01 T02060203  RH  098%=      5-min Rain = 0
KWE2 251154Z 13012KT 21/20 A2998 RMK A01 T02060203  RH  098%=      5-min Rain = 0
KWE2 251155Z 13012KT 21/20 A2998 RMK A01 T02060203  RH  098%=      5-min Rain = 0
KWE2 251156Z 13012KT 21/20 A2998 RMK A01 T02060203  RH  098%=      5-min Rain = 0
KWE2 251157Z 13013KT 21/20 A2998 RMK A01 T02060204  RH  098%=      5-min Rain = 0
KWE2 251158Z 13012KT 21/20 A2998 RMK A01 T02060203  RH  098%=      5-min Rain = 0
KWE2 251159Z 13011KT 21/20 A2998 RMK A01 T02060203  RH  098%=      5-min Rain = 0
KWE2 251200Z 13012KT 21/20 A2998 RMK A01 T02060204  RH  099%=      5-min Rain = 0
KWE2 251201Z 13010KT 21/20 A2998 RMK A01 T02060204  RH  099%=      5-min Rain = 0
KWE2 251202Z 13011KT 21/20 A2999 RMK A01 T02060204  RH  099%=      5-min Rain = 0
KWE2 251203Z 13011KT 21/20 A2999 RMK A01 T02060204  RH  099%=      5-min Rain = 0
KWE2 251204Z 13012KT 21/20 A2999 RMK A01 T02060204  RH  099%=      5-min Rain = 0
KWE2 251205Z 13012KT 21/20 A2999 RMK A01 T02060204  RH  099%=      5-min Rain = 0
KWE2 251206Z 13012KT 21/20 A2999 RMK A01 T02070204  RH  099%=      5-min Rain = 0
KWE2 251207Z 13013KT 21/20 A2999 RMK A01 T02070204  RH  099%=      5-min Rain = 0
KWE2 251208Z 13012KT 21/20 A2999 RMK A01 T02060204  RH  098%=      5-min Rain = 0
KWE2 251209Z 13013KT 21/20 A2999 RMK A01 T02060204  RH  098%=      5-min Rain = 0
KWE2 251210Z 13013KT 21/20 A2999 RMK A01 T02070204  RH  098%=      5-min Rain = 0
KWE2 251211Z 13012KT 21/20 A2999 RMK A01 T02070204  RH  099%=      5-min Rain = 0
KWE2 251212Z 13012KT 21/20 A2999 RMK A01 T02060204  RH  098%=      5-min Rain = 0
KWE2 251213Z 13012KT 21/20 A2999 RMK A01 T02070204  RH  098%=      5-min Rain = 0
KWE2 251214Z 13011KT 21/20 A2999 RMK A01 T02060204  RH  099%=      5-min Rain = 0
KWE2 251215Z 13011KT 21/20 A2999 RMK A01 T02060204  RH  099%=      5-min Rain = 0
KWE2 251216Z 13012KT 21/20 A2999 RMK A01 T02070204  RH  099%=      5-min Rain = 0
KWE2 251217Z 13012KT 21/20 A2999 RMK A01 T02060204  RH  099%=      5-min Rain = 0
KWE2 251218Z 14011KT 21/21 A2999 RMK A01 T02070205  RH  099%=      5-min Rain = 0
KWE2 251219Z 13012KT 21/21 A2999 RMK A01 T02070205  RH  099%=      5-min Rain = 0
KWE2 251220Z 13011KT 21/21 A2999 RMK A01 T02070205  RH  098%=      5-min Rain = 0
KWE2 251221Z 13012KT 21/20 A2999 RMK A01 T02070204  RH  098%=      5-min Rain = 0
KWE2 251222Z 13013KT 21/20 A2999 RMK A01 T02070204  RH  098%=      5-min Rain = 0
KWE2 251223Z 13012KT 21/21 A2999 RMK A01 T02070205  RH  098%=      5-min Rain = 0
KWE2 251224Z 14011KT 21/21 A2999 RMK A01 T02070205  RH  099%=      5-min Rain = 0
KWE2 251225Z 13012KT 21/21 A2999 RMK A01 T02070205  RH  099%=      5-min Rain = 0
KWE2 251226Z 13012KT 21/21 A2999 RMK A01 T02070205  RH  099%=      5-min Rain = 0
KWE2 251227Z 14011KT 21/21 A2999 RMK A01 T02070205  RH  099%=      5-min Rain = 0
KWE2 251228Z 13013KT 21/21 A2999 RMK A01 T02070205  RH  099%=      5-min Rain = 0
KWE2 251229Z 13014KT 21/21 A2999 RMK A01 T02070205  RH  098%=      5-min Rain = 0
KWE2 251230Z 13014KT 21/21 A2999 RMK A01 T02070205  RH  098%=      5-min Rain = 0
KWE2 251231Z 13013KT 21/20 A2999 RMK A01 T02070204  RH  098%=      5-min Rain = 0
KWE2 251232Z 13013KT 21/20 A2999 RMK A01 T02070204  RH  098%=      5-min Rain = 0
KWE2 251233Z 13013KT 21/20 A2999 RMK A01 T02070204  RH  098%=      5-min Rain = 0
KWE2 251234Z 13013KT 21/21 A2999 RMK A01 T02070205  RH  098%=      5-min Rain = 0
KWE2 251235Z 13013KT 21/21 A2999 RMK A01 T02070205  RH  099%=      5-min Rain = 0
KWE2 251236Z 13012KT 21/21 A2999 RMK A01 T02070205  RH  099%=      5-min Rain = 0
KWE2 251237Z 13014KT 21/21 A2999 RMK A01 T02070205  RH  099%=      5-min Rain = 0
KWE2 251238Z 13012KT 21/21 A2999 RMK A01 T02070205  RH  099%=      5-min Rain = 0
KWE2 251239Z 13012KT 21/21 A2999 RMK A01 T02070205  RH  099%=      5-min Rain = 0
KWE2 251240Z 13012KT 21/21 A2999 RMK A01 T02070205  RH  099%=      5-min Rain = 0
KWE2 251241Z 13012KT 21/21 A30 RMK A01 T02070205  RH  099%=      5-min Rain = 0
KWE2 251242Z 13012KT 21/21 A30 RMK A01 T02070205  RH  099%=      5-min Rain = 0
KWE2 251243Z 13014KT 21/21 A2999 RMK A01 T02070205  RH  098%=      5-min Rain = 0
KWE2 251244Z 13013KT 21/20 A2999 RMK A01 T02070204  RH  098%=      5-min Rain = 0
KWE2 251245Z 13011KT 21/21 A30 RMK A01 T02070205  RH  099%=      5-min Rain = 0
KWE2 251246Z 13012KT 21/21 A30 RMK A01 T02070205  RH  098%=      5-min Rain = 0
KWE2 251247Z 13014KT 21/21 A30 RMK A01 T02070205  RH  098%=      5-min Rain = 0
KWE2 251248Z 13013KT 21/21 A30 RMK A01 T02070205  RH  098%=      5-min Rain = 0
KWE2 251249Z 13012KT 21/21 A30 RMK A01 T02070205  RH  098%=      5-min Rain = 0
KWE2 251250Z 13013KT 21/20 A30 RMK A01 T02070204  RH  098%=      5-min Rain = 0
KWE2 251251Z 13014KT 21/21 A30 RMK A01 T02070205  RH  098%=      5-min Rain = 0
KWE2 251252Z 13011KT 21/20 A30 RMK A01 T02070204  RH  098%=      5-min Rain = 0
KWE2 251253Z 13013KT 21/21 A30 RMK A01 T02080205  RH  098%=      5-min Rain = 0
KWE2 251254Z 13014KT 21/21 A30 RMK A01 T02080205  RH  098%=      5-min Rain = 0
KWE2 251255Z 13013KT 21/21 A30 RMK A01 T02080205  RH  098%=      5-min Rain = 0
KWE2 251256Z 13012KT 21/21 A30 RMK A01 T02080205  RH  098%=      5-min Rain = 0
KWE2 251257Z 13011KT 21/21 A30 RMK A01 T02080205  RH  098%=      5-min Rain = 0
KWE2 251258Z 13013KT 21/21 A30 RMK A01 T02080205  RH  098%=      5-min Rain = 0
KWE2 251259Z 13013KT 21/21 A30 RMK A01 T02080205  RH  098%=      5-min Rain = 0
KWE2 251300Z 13013KT 21/21 A30 RMK A01 T02080205  RH  098%=      5-min Rain = 0
KWE2 251301Z 13014KT 21/21 A30 RMK A01 T02080205  RH  098%=      5-min Rain = 0
KWE2 251302Z 14014KT 21/21 A30 RMK A01 T02090205  RH  098%=      5-min Rain = 0
KWE2 251303Z 14013KT 21/21 A30 RMK A01 T02090205  RH  098%=      5-min Rain = 0
KWE2 251304Z 14011KT 21/21 A30 RMK A01 T02090206  RH  098%=      5-min Rain = 0
KWE2 251305Z 14011KT 21/21 A30 RMK A01 T02090205  RH  098%=      5-min Rain = 0
KWE2 251306Z 14013KT 21/21 A30 RMK A01 T02100206  RH  097%=      5-min Rain = 0
KWE2 251307Z 14013KT 21/21 A30 RMK A01 T02100205  RH  097%=      5-min Rain = 0
KWE2 251308Z 14015KT 21/21 A30 RMK A01 T02100205  RH  097%=      5-min Rain = 0
KWE2 251309Z 14014KT 21/21 A30 RMK A01 T02100205  RH  097%=      5-min Rain = 0
KWE2 251310Z 14013KT 21/21 A30 RMK A01 T02100205  RH  097%=      5-min Rain = 0
KWE2 251311Z 14014KT 21/21 A30 RMK A01 T02100206  RH  097%=      5-min Rain = 0
KWE2 251312Z 14016KT 21/21 A30 RMK A01 T02100205  RH  097%=      5-min Rain = 0
KWE2 251313Z 14016KT 21/21 A30 RMK A01 T02100205  RH  097%=      5-min Rain = 0
KWE2 251314Z 13015KT 21/21 A30 RMK A01 T02100205  RH  097%=      5-min Rain = 0
KWE2 251315Z 14014KT 21/21 A30 RMK A01 T02100206  RH  097%=      5-min Rain = 0
KWE2 251316Z 14013KT 21/21 A30 RMK A01 T02100206  RH  097%=      5-min Rain = 0
KWE2 251317Z 14013KT 21/21 A30 RMK A01 T02100206  RH  097%=      5-min Rain = 0
KWE2 251318Z 14013KT 21/21 A30 RMK A01 T02100206  RH  097%=      5-min Rain = 0
KWE2 251319Z 14013KT 21/21 A30 RMK A01 T02100206  RH  097%=      5-min Rain = 0
KWE2 251320Z 14013KT 21/21 A30 RMK A01 T02100206  RH  097%=      5-min Rain = 0
KWE2 251321Z 15013KT 21/21 A30 RMK A01 T02110206  RH  097%=      5-min Rain = 0
KWE2 251322Z 15014KT 21/21 A30 RMK A01 T02100206  RH  097%=      5-min Rain = 0
KWE2 251323Z 15015KT 21/21 A30 RMK A01 T02100206  RH  097%=      5-min Rain = 0
KWE2 251324Z 15013KT 21/21 A30 RMK A01 T02110206  RH  097%=      5-min Rain = 0
KWE2 251325Z 15013KT 21/21 A30 RMK A01 T02110206  RH  097%=      5-min Rain = 0
KWE2 251326Z 15013KT 21/21 A3001 RMK A01 T02110206  RH  097%=      5-min Rain = 0
KWE2 251327Z 15015KT 21/21 A3001 RMK A01 T02110206  RH  097%=      5-min Rain = 0
KWE2 251328Z 15014KT 21/21 A3001 RMK A01 T02120206  RH  097%=      5-min Rain = 0
KWE2 251329Z 15012KT 21/21 A3001 RMK A01 T02120206  RH  097%=      5-min Rain = 0
KWE2 251330Z 15013KT 21/21 A3001 RMK A01 T02120207  RH  097%=      5-min Rain = 0
KWE2 251331Z 15014KT 21/21 A3001 RMK A01 T02130207  RH  096%=      5-min Rain = 0
KWE2 251332Z 15014KT 21/21 A3001 RMK A01 T02130207  RH  096%=      5-min Rain = 0
KWE2 251333Z 15014KT 21/21 A3001 RMK A01 T02140207  RH  096%=      5-min Rain = 0
KWE2 251334Z 15014KT 21/21 A3001 RMK A01 T02140206  RH  095%=      5-min Rain = 0
KWE2 251335Z 15015KT 21/21 A3001 RMK A01 T02140206  RH  095%=      5-min Rain = 0
KWE2 251336Z 15016G21KT 22/21 A3001 RMK A01 T02150206  RH  095%=      5-min Rain = 0
KWE2 251337Z 15013KT 22/21 A3001 RMK A01 T02150206  RH  095%=      5-min Rain = 0
KWE2 251338Z 15015KT 22/21 A3001 RMK A01 T02160206  RH  094%=      5-min Rain = 0
KWE2 251339Z 15015KT 22/21 A3001 RMK A01 T02160206  RH  094%=      5-min Rain = 0
KWE2 251340Z 15014G19KT 22/21 A3001 RMK A01 T02160206  RH  094%=      5-min Rain = 0
KWE2 251341Z 15017KT 22/21 A3001 RMK A01 T02170206  RH  094%=      5-min Rain = 0
KWE2 251342Z 15016KT 22/21 A3001 RMK A01 T02170206  RH  094%=      5-min Rain = 0
KWE2 251343Z 15015KT 22/21 A3001 RMK A01 T02170207  RH  094%=      5-min Rain = 0
KWE2 251344Z 15017KT 22/21 A3001 RMK A01 T02170207  RH  094%=      5-min Rain = 0
KWE2 251345Z 15015KT 22/21 A3001 RMK A01 T02160206  RH  094%=      5-min Rain = 0
KWE2 251346Z 15015KT 22/21 A3001 RMK A01 T02160207  RH  094%=      5-min Rain = 0
KWE2 251347Z 15014KT 22/21 A3001 RMK A01 T02160207  RH  094%=      5-min Rain = 0
KWE2 251348Z 15015KT 22/21 A3001 RMK A01 T02160207  RH  094%=      5-min Rain = 0
KWE2 251349Z 15015KT 22/21 A3001 RMK A01 T02170206  RH  094%=      5-min Rain = 0
KWE2 251350Z 14016KT 22/21 A3001 RMK A01 T02170206  RH  094%=      5-min Rain = 0
KWE2 251351Z 14016KT 22/21 A3001 RMK A01 T02170206  RH  094%=      5-min Rain = 0
KWE2 251352Z 14014KT 22/21 A3001 RMK A01 T02170206  RH  094%=      5-min Rain = 0
KWE2 251353Z 14014KT 22/21 A3001 RMK A01 T02170206  RH  094%=      5-min Rain = 0
KWE2 251354Z 14016KT 22/21 A3001 RMK A01 T02170207  RH  094%=      5-min Rain = 0
KWE2 251355Z 14016KT 22/21 A3001 RMK A01 T02170206  RH  093%=      5-min Rain = 0
KWE2 251356Z 14017KT 22/21 A3001 RMK A01 T02170206  RH  093%=      5-min Rain = 0
KWE2 251357Z 15016KT 22/21 A3001 RMK A01 T02170206  RH  093%=      5-min Rain = 0
KWE2 251358Z 15015KT 22/21 A3001 RMK A01 T02170206  RH  093%=      5-min Rain = 0
KWE2 251359Z 14014KT 22/21 A3001 RMK A01 T02180207  RH  094%=      5-min Rain = 0
KWE2 251400Z 15016KT 22/21 A3001 RMK A01 T02180207  RH  093%=      5-min Rain = 0
KWE2 251401Z 15014KT 22/21 A3001 RMK A01 T02180207  RH  093%=      5-min Rain = 0
KWE2 251402Z 14016KT 22/21 A3001 RMK A01 T02180207  RH  093%=      5-min Rain = 0
KWE2 251403Z 14016KT 22/21 A3001 RMK A01 T02190207  RH  093%=      5-min Rain = 0
KWE2 251404Z 14016KT 22/21 A3001 RMK A01 T02180207  RH  093%=      5-min Rain = 0
KWE2 251405Z 15017KT 22/21 A3001 RMK A01 T02180207  RH  093%=      5-min Rain = 0
KWE2 251406Z 15016KT 22/21 A3001 RMK A01 T02180207  RH  093%=      5-min Rain = 0
KWE2 251407Z 15017KT 22/21 A3001 RMK A01 T02180207  RH  093%=      5-min Rain = 0
KWE2 251408Z 15014KT 22/21 A3001 RMK A01 T02180207  RH  093%=      5-min Rain = 0
KWE2 251409Z 15015G20KT 22/21 A3001 RMK A01 T02180207  RH  093%=      5-min Rain = 0
KWE2 251410Z 15016KT 22/21 A3001 RMK A01 T02180207  RH  093%=      5-min Rain = 0
KWE2 251411Z 15015KT 22/21 A3001 RMK A01 T02180207  RH  093%=      5-min Rain = 0
KWE2 251412Z 15013KT 22/21 A3001 RMK A01 T02180208  RH  094%=      5-min Rain = 0
KWE2 251413Z 15013KT 22/21 A3001 RMK A01 T02190208  RH  093%=      5-min Rain = 0
KWE2 251414Z 15015KT 22/21 A3001 RMK A01 T02190207  RH  093%=      5-min Rain = 0
KWE2 251415Z 15013KT 22/21 A3001 RMK A01 T02190207  RH  093%=      5-min Rain = 0
KWE2 251416Z 15014KT 22/21 A3001 RMK A01 T02190208  RH  094%=      5-min Rain = 0
KWE2 251417Z 15014KT 22/21 A3001 RMK A01 T02190207  RH  093%=      5-min Rain = 0
KWE2 251418Z 14013KT 22/21 A3001 RMK A01 T02190207  RH  093%=      5-min Rain = 0
KWE2 251419Z 15014KT 22/21 A3001 RMK A01 T02200208  RH  093%=      5-min Rain = 0
KWE2 251420Z 14016KT 22/21 A3001 RMK A01 T02200208  RH  093%=      5-min Rain = 0
KWE2 251421Z 14017KT 22/21 A3001 RMK A01 T02200207  RH  092%=      5-min Rain = 0
KWE2 251422Z 15014KT 22/21 A3001 RMK A01 T02210207  RH  092%=      5-min Rain = 0
KWE2 251423Z 15015KT 22/21 A3001 RMK A01 T02210207  RH  092%=      5-min Rain = 0
KWE2 251424Z 15017KT 22/21 A3001 RMK A01 T02210206  RH  091%=      5-min Rain = 0
KWE2 251425Z 15018KT 22/21 A3001 RMK A01 T02210206  RH  091%=      5-min Rain = 0
KWE2 251426Z 15016KT 22/21 A3001 RMK A01 T02210206  RH  091%=      5-min Rain = 0
KWE2 251427Z 15014KT 22/21 A3001 RMK A01 T02220206  RH  091%=      5-min Rain = 0
KWE2 251428Z 15014KT 22/21 A3001 RMK A01 T02230207  RH  091%=      5-min Rain = 0
KWE2 251429Z 15015KT 22/21 A3001 RMK A01 T02240207  RH  090%=      5-min Rain = 0
KWE2 251430Z 14017KT 23/21 A3001 RMK A01 T02260207  RH  089%=      5-min Rain = 0
KWE2 251431Z 15017KT 23/21 A3001 RMK A01 T02260206  RH  088%=      5-min Rain = 0
KWE2 251432Z 15017KT 23/21 A30 RMK A01 T02260206  RH  088%=      5-min Rain = 0
KWE2 251433Z 15017KT 23/21 A3001 RMK A01 T02260205  RH  088%=      5-min Rain = 0
KWE2 251434Z 16016KT 23/21 A3001 RMK A01 T02260205  RH  088%=      5-min Rain = 0
KWE2 251435Z 14016KT 23/21 A3001 RMK A01 T02250206  RH  089%=      5-min Rain = 0
KWE2 251436Z 14019KT 23/21 A30 RMK A01 T02260205  RH  088%=      5-min Rain = 0
KWE2 251437Z 15016KT 23/21 A3001 RMK A01 T02260205  RH  088%=      5-min Rain = 0
KWE2 251438Z 15015KT 23/21 A3001 RMK A01 T02270205  RH  088%=      5-min Rain = 0
KWE2 251439Z 15018KT 23/21 A3001 RMK A01 T02270205  RH  088%=      5-min Rain = 0
KWE2 251440Z 15015KT 23/21 A3001 RMK A01 T02270205  RH  087%=      5-min Rain = 0
KWE2 251441Z 15018KT 23/20 A3001 RMK A01 T02270204  RH  087%=      5-min Rain = 0
KWE2 251442Z 15017KT 23/20 A3001 RMK A01 T02280204  RH  087%=      5-min Rain = 0
KWE2 251443Z 15015KT 23/20 A3001 RMK A01 T02280204  RH  087%=      5-min Rain = 0
KWE2 251444Z 15015KT 23/21 A3001 RMK A01 T02280205  RH  087%=      5-min Rain = 0
KWE2 251445Z 15017KT 23/20 A3001 RMK A01 T02280204  RH  086%=      5-min Rain = 0
KWE2 251446Z 15015KT 23/20 A3001 RMK A01 T02290204  RH  086%=      5-min Rain = 0
KWE2 251447Z 15015KT 23/21 A3001 RMK A01 T02290205  RH  087%=      5-min Rain = 0
KWE2 251448Z 16017KT 23/20 A3001 RMK A01 T02280204  RH  086%=      5-min Rain = 0
KWE2 251449Z 15013G18KT 23/21 A3001 RMK A01 T02280205  RH  087%=      5-min Rain = 0
KWE2 251450Z 15014KT 23/21 A3001 RMK A01 T02280205  RH  087%=      5-min Rain = 0
KWE2 251451Z 14013KT 23/21 A3001 RMK A01 T02290206  RH  087%=      5-min Rain = 0
KWE2 251452Z 14015KT 23/21 A3001 RMK A01 T02300205  RH  086%=      5-min Rain = 0
KWE2 251453Z 15014KT 23/20 A3001 RMK A01 T02300204  RH  085%=      5-min Rain = 0
KWE2 251454Z 16013KT 23/21 A3001 RMK A01 T02300205  RH  086%=      5-min Rain = 0
KWE2 251455Z 15015KT 23/21 A3001 RMK A01 T02300205  RH  085%=      5-min Rain = 0
KWE2 251456Z 15016KT 23/20 A3001 RMK A01 T02310204  RH  085%=      5-min Rain = 0
KWE2 251457Z 16014KT 23/21 A3001 RMK A01 T02300205  RH  085%=      5-min Rain = 0
KWE2 251458Z 15015G20KT 23/21 A3001 RMK A01 T02300205  RH  085%=      5-min Rain = 0
KWE2 251459Z 16015KT 23/20 A3001 RMK A01 T02300204  RH  085%=      5-min Rain = 0
KWE2 251500Z 16014KT 23/20 A3001 RMK A01 T02300204  RH  085%=      5-min Rain = 0
KWE2 251501Z 16017KT 23/20 A3001 RMK A01 T02290203  RH  085%=      5-min Rain = 0
KWE2 251502Z 16014KT 23/20 A3001 RMK A01 T02290204  RH  086%=      5-min Rain = 0
KWE2 251503Z 16017KT 23/20 A3001 RMK A01 T02290203  RH  085%=      5-min Rain = 0
KWE2 251504Z 15016KT 23/20 A3001 RMK A01 T02290203  RH  086%=      5-min Rain = 0
KWE2 251505Z 15016KT 23/20 A3001 RMK A01 T02290204  RH  086%=      5-min Rain = 0
KWE2 251506Z 15015KT 23/20 A3001 RMK A01 T02290204  RH  086%=      5-min Rain = 0
KWE2 251507Z 15015KT 23/20 A3001 RMK A01 T02280204  RH  086%=      5-min Rain = 0
KWE2 251508Z 15015KT 23/20 A3001 RMK A01 T02280204  RH  086%=      5-min Rain = 0
KWE2 251509Z 16018KT 23/20 A3001 RMK A01 T02290204  RH  086%=      5-min Rain = 0
KWE2 251510Z 15015KT 23/20 A3001 RMK A01 T02290203  RH  085%=      5-min Rain = 0
KWE2 251511Z 16016KT 23/20 A3001 RMK A01 T02290203  RH  085%=      5-min Rain = 0
KWE2 251512Z 16014KT 23/20 A3001 RMK A01 T02290203  RH  085%=      5-min Rain = 0
KWE2 251513Z 15013KT 23/20 A3001 RMK A01 T02290204  RH  086%=      5-min Rain = 0
KWE2 251514Z 15014KT 23/20 A3001 RMK A01 T02290204  RH  086%=      5-min Rain = 0
KWE2 251515Z 15017KT 23/20 A3001 RMK A01 T02290203  RH  085%=      5-min Rain = 0
KWE2 251516Z 16017KT 23/20 A3001 RMK A01 T02290203  RH  085%=      5-min Rain = 0
KWE2 251517Z 16019KT 23/20 A3001 RMK A01 T02280203  RH  086%=      5-min Rain = 0
KWE2 251518Z 16017KT 23/20 A3001 RMK A01 T02280202  RH  085%=      5-min Rain = 0
KWE2 251519Z 16017KT 23/20 A3001 RMK A01 T02280203  RH  086%=      5-min Rain = 0
KWE2 251520Z 16017KT 23/20 A3001 RMK A01 T02280203  RH  085%=      5-min Rain = 0
KWE2 251521Z 15018KT 23/20 A3001 RMK A01 T02280202  RH  085%=      5-min Rain = 0
KWE2 251522Z 15017KT 23/20 A3001 RMK A01 T02280202  RH  085%=      5-min Rain = 0
KWE2 251523Z 16018KT 23/20 A3001 RMK A01 T02280202  RH  086%=      5-min Rain = 0
KWE2 251524Z 15016KT 23/20 A3002 RMK A01 T02280203  RH  086%=      5-min Rain = 0
KWE2 251525Z 16018KT 23/20 A3002 RMK A01 T02280203  RH  086%=      5-min Rain = 0
KWE2 251526Z 16015KT 23/20 A3002 RMK A01 T02280203  RH  086%=      5-min Rain = 0
KWE2 251527Z 16016KT 23/20 A3002 RMK A01 T02290203  RH  086%=      5-min Rain = 0
KWE2 251528Z 15014KT 23/20 A3002 RMK A01 T02290204  RH  086%=      5-min Rain = 0
KWE2 251529Z 15017KT 23/20 A3002 RMK A01 T02280204  RH  086%=      5-min Rain = 0
KWE2 251530Z 16014KT 23/20 A3002 RMK A01 T02290204  RH  086%=      5-min Rain = 0
KWE2 251531Z 16016KT 23/20 A3002 RMK A01 T02280203  RH  086%=      5-min Rain = 0
KWE2 251532Z 16016KT 23/20 A3002 RMK A01 T02280203  RH  085%=      5-min Rain = 0
KWE2 251533Z 16015KT 23/20 A3002 RMK A01 T02280203  RH  085%=      5-min Rain = 0
KWE2 251534Z 15015KT 23/20 A3002 RMK A01 T02280203  RH  086%=      5-min Rain = 0
KWE2 251535Z 15015KT 23/20 A3002 RMK A01 T02290203  RH  086%=      5-min Rain = 0
KWE2 251536Z 16016KT 23/20 A3002 RMK A01 T02290203  RH  086%=      5-min Rain = 0
KWE2 251537Z 16016KT 23/20 A3002 RMK A01 T02290203  RH  085%=      5-min Rain = 0
KWE2 251538Z 15018KT 23/20 A3002 RMK A01 T02290203  RH  085%=      5-min Rain = 0
KWE2 251539Z 15018KT 23/20 A3001 RMK A01 T02290202  RH  085%=      5-min Rain = 0
KWE2 251540Z 16018KT 23/20 A3001 RMK A01 T02300202  RH  085%=      5-min Rain = 0
KWE2 251541Z 16017KT 23/20 A3001 RMK A01 T02300202  RH  085%=      5-min Rain = 0
KWE2 251542Z 16018KT 23/20 A3001 RMK A01 T02300203  RH  085%=      5-min Rain = 0
KWE2 251543Z 16018KT 23/20 A3001 RMK A01 T02300202  RH  084%=      5-min Rain = 0
KWE2 251544Z 15018KT 23/20 A3001 RMK A01 T02300202  RH  084%=      5-min Rain = 0
KWE2 251545Z 15018KT 23/20 A3001 RMK A01 T02300202  RH  084%=      5-min Rain = 0
KWE2 251546Z 16020KT 23/20 A3001 RMK A01 T02300202  RH  084%=      5-min Rain = 0
KWE2 251547Z 16018KT 23/20 A3001 RMK A01 T02310201  RH  084%=      5-min Rain = 0
KWE2 251548Z 16014G19KT 23/20 A3002 RMK A01 T02310202  RH  084%=      5-min Rain = 0
KWE2 251549Z 16014KT 23/20 A3002 RMK A01 T02320203  RH  084%=      5-min Rain = 0
KWE2 251550Z 16014KT 23/20 A3002 RMK A01 T02330203  RH  083%=      5-min Rain = 0
KWE2 251551Z 15017KT 23/20 A3001 RMK A01 T02330203  RH  083%=      5-min Rain = 0
KWE2 251552Z 15017KT 23/20 A3001 RMK A01 T02340203  RH  083%=      5-min Rain = 0
KWE2 251553Z 15015KT 23/20 A3001 RMK A01 T02340203  RH  083%=      5-min Rain = 0
KWE2 251554Z 15015KT 23/20 A3001 RMK A01 T02340203  RH  083%=      5-min Rain = 0
KWE2 251555Z 15016KT 23/20 A3001 RMK A01 T02340203  RH  083%=      5-min Rain = 0
KWE2 251556Z 16017KT 23/20 A3001 RMK A01 T02340203  RH  083%=      5-min Rain = 0
KWE2 251557Z 15017KT 23/20 A3002 RMK A01 T02340203  RH  083%=      5-min Rain = 0
KWE2 251558Z 16018KT 23/20 A3001 RMK A01 T02340202  RH  082%=      5-min Rain = 0
KWE2 251559Z 16018KT 23/20 A3001 RMK A01 T02340203  RH  083%=      5-min Rain = 0
KWE2 251600Z 16018KT 23/20 A3001 RMK A01 T02340202  RH  082%=      5-min Rain = 0
KWE2 251601Z 15017KT 23/20 A3002 RMK A01 T02340202  RH  082%=      5-min Rain = 0
KWE2 251602Z 15018KT 23/20 A3002 RMK A01 T02340202  RH  082%=      5-min Rain = 0
KWE2 251603Z 16017KT 23/20 A3002 RMK A01 T02340202  RH  082%=      5-min Rain = 0
KWE2 251604Z 16015KT 24/20 A3002 RMK A01 T02350203  RH  082%=      5-min Rain = 0
KWE2 251605Z 16015KT 24/20 A3002 RMK A01 T02350203  RH  082%=      5-min Rain = 0
KWE2 251606Z 15016KT 24/20 A3002 RMK A01 T02350203  RH  082%=      5-min Rain = 0
KWE2 251607Z 15021KT 24/20 A3002 RMK A01 T02350202  RH  081%=      5-min Rain = 0
KWE2 251608Z 15019KT 24/20 A3002 RMK A01 T02350201  RH  082%=      5-min Rain = 0
KWE2 251609Z 16017KT 23/20 A3002 RMK A01 T02340202  RH  082%=      5-min Rain = 0
KWE2 251610Z 16018KT 23/20 A3002 RMK A01 T02340202  RH  082%=      5-min Rain = 0
KWE2 251611Z 16018KT 23/20 A3002 RMK A01 T02340202  RH  082%=      5-min Rain = 0
KWE2 251612Z 15017KT 23/20 A3002 RMK A01 T02330202  RH  083%=      5-min Rain = 0
KWE2 251613Z 16017KT 23/20 A3002 RMK A01 T02330202  RH  083%=      5-min Rain = 0
KWE2 251614Z 16017KT 23/20 A3002 RMK A01 T02330202  RH  083%=      5-min Rain = 0
KWE2 251615Z 16015KT 23/20 A3002 RMK A01 T02330202  RH  083%=      5-min Rain = 0
KWE2 251616Z 15017KT 23/20 A3002 RMK A01 T02340202  RH  082%=      5-min Rain = 0
KWE2 251617Z 15018KT 23/20 A3001 RMK A01 T02340201  RH  082%=      5-min Rain = 0
KWE2 251618Z 16019KT 24/20 A3001 RMK A01 T02350202  RH  082%=      5-min Rain = 0
KWE2 251619Z 16018KT 24/20 A3001 RMK A01 T02350201  RH  081%=      5-min Rain = 0
KWE2 251620Z 16016KT 24/20 A3002 RMK A01 T02350201  RH  081%=      5-min Rain = 0
KWE2 251621Z 15019KT 24/20 A3001 RMK A01 T02350201  RH  081%=      5-min Rain = 0
KWE2 251622Z 16018KT 24/20 A3002 RMK A01 T02350201  RH  081%=      5-min Rain = 0
KWE2 251623Z 16019KT 24/20 A3001 RMK A01 T02350201  RH  081%=      5-min Rain = 0
KWE2 251624Z 16019KT 24/20 A3001 RMK A01 T02350201  RH  081%=      5-min Rain = 0
KWE2 251625Z 15018G23KT 24/20 A3002 RMK A01 T02360201  RH  081%=      5-min Rain = 0
KWE2 251626Z 16016KT 24/20 A3002 RMK A01 T02350202  RH  081%=      5-min Rain = 0
KWE2 251627Z 17016KT 24/20 A3002 RMK A01 T02360202  RH  081%=      5-min Rain = 0
KWE2 251628Z 17017KT 24/20 A3002 RMK A01 T02360201  RH  081%=      5-min Rain = 0
KWE2 251629Z 16017KT 24/20 A3001 RMK A01 T02370201  RH  081%=      5-min Rain = 0
KWE2 251630Z 16018KT 24/20 A3001 RMK A01 T02370202  RH  081%=      5-min Rain = 0
KWE2 251631Z 16019KT 24/20 A3001 RMK A01 T02370201  RH  080%=      5-min Rain = 0
KWE2 251632Z 16020KT 24/20 A3001 RMK A01 T02380200  RH  079%=      5-min Rain = 0
KWE2 251633Z 16017KT 24/20 A3001 RMK A01 T02370200  RH  080%=      5-min Rain = 0
KWE2 251634Z 16018KT 24/20 A3001 RMK A01 T02370200  RH  080%=      5-min Rain = 0
KWE2 251635Z 16019KT 24/20 A3001 RMK A01 T02380200  RH  079%=      5-min Rain = 0
KWE2 251636Z 16018KT 24/20 A3001 RMK A01 T02380200  RH  079%=      5-min Rain = 0
KWE2 251637Z 15017KT 24/20 A3001 RMK A01 T02380201  RH  080%=      5-min Rain = 0
KWE2 251638Z 15019G24KT 24/20 A3001 RMK A01 T02380201  RH  080%=      5-min Rain = 0
KWE2 251639Z 16017KT 24/20 A3001 RMK A01 T02390201  RH  080%=      5-min Rain = 0
KWE2 251640Z 16017KT 24/20 A3001 RMK A01 T02380201  RH  079%=      5-min Rain = 0
KWE2 251641Z 16018KT 24/20 A3001 RMK A01 T02390201  RH  079%=      5-min Rain = 0
KWE2 251642Z 15020KT 24/20 A3001 RMK A01 T02380201  RH  079%=      5-min Rain = 0
KWE2 251643Z 15020KT 24/20 A3001 RMK A01 T02370200  RH  080%=      5-min Rain = 0
KWE2 251644Z 15019KT 24/20 A3001 RMK A01 T02370200  RH  080%=      5-min Rain = 0
KWE2 251645Z 16019KT 24/20 A3001 RMK A01 T02360200  RH  080%=      5-min Rain = 0
KWE2 251646Z 15017KT 24/20 A3001 RMK A01 T02360201  RH  080%=      5-min Rain = 0
KWE2 251647Z 16015KT 24/20 A3001 RMK A01 T02370201  RH  080%=      5-min Rain = 0
KWE2 251648Z 15017KT 24/20 A3001 RMK A01 T02370201  RH  080%=      5-min Rain = 0
KWE2 251649Z 15017KT 24/20 A3001 RMK A01 T02380201  RH  080%=      5-min Rain = 0
KWE2 251650Z 16016KT 24/20 A3001 RMK A01 T02370201  RH  080%=      5-min Rain = 0
KWE2 251651Z 16017KT 24/20 A3001 RMK A01 T02380201  RH  080%=      5-min Rain = 0
KWE2 251652Z 16018KT 24/20 A3001 RMK A01 T02370201  RH  080%=      5-min Rain = 0
KWE2 251653Z 16018KT 24/20 A3001 RMK A01 T02370201  RH  080%=      5-min Rain = 0
KWE2 251654Z 15019KT 24/20 A3001 RMK A01 T02370201  RH  080%=      5-min Rain = 0
KWE2 251655Z 16017KT 24/20 A3001 RMK A01 T02370200  RH  080%=      5-min Rain = 0
KWE2 251656Z 16017KT 24/20 A3001 RMK A01 T02370200  RH  080%=      5-min Rain = 0
KWE2 251657Z 16016KT 24/20 A3001 RMK A01 T02370201  RH  080%=      5-min Rain = 0
KWE2 251658Z 16016KT 24/20 A3001 RMK A01 T02360201  RH  081%=      5-min Rain = 0
KWE2 251659Z 16016KT 24/20 A3001 RMK A01 T02360201  RH  081%=      5-min Rain = 0
KWE2 251700Z 16016KT 24/20 A3001 RMK A01 T02360201  RH  081%=      5-min Rain = 0
KWE2 251701Z 17018KT 24/20 A3001 RMK A01 T02370201  RH  080%=      5-min Rain = 0
KWE2 251702Z 16017KT 24/20 A3001 RMK A01 T02370200  RH  080%=      5-min Rain = 0
KWE2 251703Z 16014KT 24/20 A3001 RMK A01 T02370201  RH  080%=      5-min Rain = 0
KWE2 251704Z 16016KT 24/20 A3001 RMK A01 T02370201  RH  080%=      5-min Rain = 0
KWE2 251705Z 16016KT 24/20 A3001 RMK A01 T02370201  RH  080%=      5-min Rain = 0
KWE2 251706Z 16017KT 24/20 A3001 RMK A01 T02370201  RH  080%=      5-min Rain = 0
KWE2 251707Z 16016KT 24/20 A3001 RMK A01 T02370201  RH  080%=      5-min Rain = 0
KWE2 251708Z 16016KT 24/20 A3001 RMK A01 T02370201  RH  080%=      5-min Rain = 0
KWE2 251709Z 17014KT 24/20 A3001 RMK A01 T02380201  RH  080%=      5-min Rain = 0
KWE2 251710Z 16018KT 24/20 A3001 RMK A01 T02380201  RH  080%=      5-min Rain = 0
KWE2 251711Z 17019KT 24/20 A3001 RMK A01 T02390201  RH  079%=      5-min Rain = 0
KWE2 251712Z 16019KT 24/20 A3001 RMK A01 T02400201  RH  079%=      5-min Rain = 0
KWE2 251713Z 16018KT 24/20 A3001 RMK A01 T02400200  RH  079%=      5-min Rain = 0
KWE2 251714Z 16020KT 24/20 A3001 RMK A01 T02400200  RH  078%=      5-min Rain = 0
KWE2 251715Z 16020KT 24/20 A30 RMK A01 T02400200  RH  078%=      5-min Rain = 0
KWE2 251716Z 17019KT 24/20 A30 RMK A01 T02410200  RH  078%=      5-min Rain = 0
KWE2 251717Z 16018KT 24/20 A30 RMK A01 T02420201  RH  078%=      5-min Rain = 0
KWE2 251718Z 17019KT 24/20 A30 RMK A01 T02430201  RH  077%=      5-min Rain = 0
KWE2 251719Z 17017KT 24/20 A30 RMK A01 T02430200  RH  077%=      5-min Rain = 0
KWE2 251720Z 16015KT 24/20 A30 RMK A01 T02430201  RH  077%=      5-min Rain = 0
KWE2 251721Z 16020KT 24/20 A30 RMK A01 T02440202  RH  077%=      5-min Rain = 0
KWE2 251722Z 16019KT 24/20 A30 RMK A01 T02440201  RH  077%=      5-min Rain = 0
KWE2 251723Z 17021KT 24/20 A30 RMK A01 T02440201  RH  077%=      5-min Rain = 0
KWE2 251724Z 17021KT 24/20 A30 RMK A01 T02440200  RH  076%=      5-min Rain = 0
KWE2 251725Z 16018KT 25/20 A30 RMK A01 T02450200  RH  076%=      5-min Rain = 0
KWE2 251726Z 16016KT 24/20 A30 RMK A01 T02440200  RH  076%=      5-min Rain = 0
KWE2 251727Z 17018KT 25/20 A30 RMK A01 T02450200  RH  076%=      5-min Rain = 0
KWE2 251728Z 16018KT 25/20 A30 RMK A01 T02450200  RH  076%=      5-min Rain = 0
KWE2 251729Z 16023KT 25/20 A30 RMK A01 T02460200  RH  076%=      5-min Rain = 0
KWE2 251730Z 16021KT 25/20 A30 RMK A01 T02460200  RH  075%=      5-min Rain = 0
KWE2 251731Z 16021KT 25/20 A30 RMK A01 T02460200  RH  076%=      5-min Rain = 0
KWE2 251732Z 16019KT 25/20 A30 RMK A01 T02470200  RH  075%=      5-min Rain = 0
KWE2 251733Z 16018KT 25/20 A30 RMK A01 T02480201  RH  075%=      5-min Rain = 0
KWE2 251734Z 16020KT 25/20 A30 RMK A01 T02490201  RH  075%=      5-min Rain = 0
KWE2 251735Z 17020G25KT 25/20 A30 RMK A01 T02500201  RH  074%=      5-min Rain = 0
KWE2 251736Z 16021KT 25/20 A30 RMK A01 T02510201  RH  074%=      5-min Rain = 0
KWE2 251737Z 16023KT 25/20 A30 RMK A01 T02530201  RH  073%=      5-min Rain = 0
KWE2 251738Z 17024KT 26/20 A30 RMK A01 T02560200  RH  071%=      5-min Rain = 0
KWE2 251739Z 17020KT 26/20 A2999 RMK A01 T02580200  RH  071%=      5-min Rain = 0
KWE2 251740Z 17018KT 26/20 A2999 RMK A01 T02600199  RH  069%=      5-min Rain = 0
KWE2 251741Z 16022KT 26/20 A2999 RMK A01 T02610201  RH  069%=      5-min Rain = 0
KWE2 251742Z 17021KT 26/20 A2999 RMK A01 T02630201  RH  069%=      5-min Rain = 0
KWE2 251743Z 17021KT 27/20 A2999 RMK A01 T02650202  RH  068%=      5-min Rain = 0
KWE2 251744Z 16020KT 27/20 A2999 RMK A01 T02680203  RH  068%=      5-min Rain = 0
KWE2 251745Z 17021KT 27/20 A2999 RMK A01 T02700202  RH  066%=      5-min Rain = 0
KWE2 251746Z 16020G25KT 27/20 A2999 RMK A01 T02670201  RH  067%=      5-min Rain = 0
KWE2 251747Z 16022KT 26/20 A2999 RMK A01 T02640201  RH  068%=      5-min Rain = 0
KWE2 251748Z 16023G28KT 26/20 A2999 RMK A01 T02640200  RH  068%=      5-min Rain = 0
KWE2 251749Z 16021KT 26/20 A2999 RMK A01 T02630200  RH  068%=      5-min Rain = 0
KWE2 251750Z 17024KT 26/20 A2999 RMK A01 T02630199  RH  068%=      5-min Rain = 0
KWE2 251751Z 17022KT 26/20 A2999 RMK A01 T02620199  RH  068%=      5-min Rain = 0
KWE2 251752Z 17021KT 26/20 A2999 RMK A01 T02640200  RH  068%=      5-min Rain = 0
KWE2 251753Z 17023KT 27/20 A2999 RMK A01 T02670201  RH  067%=      5-min Rain = 0
KWE2 251754Z 17020KT 27/20 A2999 RMK A01 T02680202  RH  067%=      5-min Rain = 0
KWE2 251755Z 18020KT 27/20 A2999 RMK A01 T02690201  RH  066%=      5-min Rain = 0
KWE2 251756Z 17019G26KT 27/20 A2999 RMK A01 T02700202  RH  066%=      5-min Rain = 0
KWE2 251757Z 16025KT 27/20 A2999 RMK A01 T02700200  RH  066%=      5-min Rain = 0
KWE2 251758Z 17023KT 27/20 A2999 RMK A01 T02670200  RH  066%=      5-min Rain = 0
KWE2 251759Z 17019KT 27/20 A2999 RMK A01 T02670201  RH  067%=      5-min Rain = 0
KWE2 251800Z 16024KT 27/20 A2999 RMK A01 T02670199  RH  066%=      5-min Rain = 0
KWE2 251801Z 16021KT 27/20 A2999 RMK A01 T02670200  RH  067%=      5-min Rain = 0
KWE2 251802Z 16023KT 27/20 A2999 RMK A01 T02660199  RH  067%=      5-min Rain = 0
KWE2 251803Z 16024KT 27/20 A2999 RMK A01 T02650199  RH  067%=      5-min Rain = 0
KWE2 251804Z 16022KT 26/20 A2999 RMK A01 T02640200  RH  068%=      5-min Rain = 0
KWE2 251805Z 16022KT 26/20 A2999 RMK A01 T02640200  RH  068%=      5-min Rain = 0
KWE2 251806Z 16022G27KT 27/20 A2999 RMK A01 T02660199  RH  067%=      5-min Rain = 0
KWE2 251807Z 16023KT 27/20 A2999 RMK A01 T02650200  RH  067%=      5-min Rain = 0
KWE2 251808Z 16021KT 27/20 A2999 RMK A01 T02650200  RH  067%=      5-min Rain = 0
KWE2 251809Z 16021KT 27/20 A2999 RMK A01 T02650200  RH  068%=      5-min Rain = 0
KWE2 251810Z 16023KT 27/20 A2999 RMK A01 T02650201  RH  068%=      5-min Rain = 0
KWE2 251811Z 16021KT 27/20 A2999 RMK A01 T02660200  RH  067%=      5-min Rain = 0
KWE2 251812Z 16017KT 27/20 A2999 RMK A01 T02650202  RH  068%=      5-min Rain = 0
KWE2 251813Z 14022KT 27/20 A2999 RMK A01 T02650203  RH  069%=      5-min Rain = 0
KWE2 251814Z 15023KT 27/20 A2999 RMK A01 T02650203  RH  069%=      5-min Rain = 0
KWE2 251815Z 16020KT 26/20 A2999 RMK A01 T02630203  RH  070%=      5-min Rain = 0
KWE2 251816Z 16022G27KT 26/20 A2999 RMK A01 T02640204  RH  070%=      5-min Rain = 0
KWE2 251817Z 15023KT 27/20 A2998 RMK A01 T02650202  RH  068%=      5-min Rain = 0
KWE2 251818Z 15020KT 27/20 A2998 RMK A01 T02660203  RH  068%=      5-min Rain = 0
KWE2 251819Z 15019KT 27/21 A2998 RMK A01 T02710206  RH  068%=      5-min Rain = 0
KWE2 251820Z 15022KT 28/21 A2998 RMK A01 T02750206  RH  066%=      5-min Rain = 0
KWE2 251821Z 16021G27KT 28/21 A2998 RMK A01 T02750205  RH  066%=      5-min Rain = 0
KWE2 251822Z 17021KT 27/20 A2998 RMK A01 T02730203  RH  066%=      5-min Rain = 0
KWE2 251823Z 17022G27KT 27/20 A2998 RMK A01 T02700202  RH  066%=      5-min Rain = 0
KWE2 251824Z 17022KT 27/20 A2998 RMK A01 T02700202  RH  066%=      5-min Rain = 0
KWE2 251825Z 16024KT 27/20 A2998 RMK A01 T02700202  RH  066%=      5-min Rain = 0
KWE2 251826Z 16021KT 27/20 A2998 RMK A01 T02690203  RH  067%=      5-min Rain = 0
KWE2 251827Z 16022KT 27/20 A2998 RMK A01 T02700203  RH  067%=      5-min Rain = 0
KWE2 251828Z 16021KT 27/20 A2998 RMK A01 T02720202  RH  066%=      5-min Rain = 0
KWE2 251829Z 17021G27KT 27/20 A2998 RMK A01 T02730202  RH  065%=      5-min Rain = 0
KWE2 251830Z 18023KT 27/20 A2998 RMK A01 T02740201  RH  064%=      5-min Rain = 0
KWE2 251831Z 17021KT 27/20 A2998 RMK A01 T02740201  RH  064%=      5-min Rain = 0
KWE2 251832Z 17023KT 27/20 A2998 RMK A01 T02730202  RH  065%=      5-min Rain = 0
KWE2 251833Z 17023KT 27/20 A2998 RMK A01 T02740201  RH  064%=      5-min Rain = 0
KWE2 251834Z 17024G29KT 27/20 A2998 RMK A01 T02730200  RH  064%=      5-min Rain = 0
KWE2 251835Z 16022G27KT 27/20 A2998 RMK A01 T02740200  RH  064%=      5-min Rain = 0
KWE2 251836Z 17019KT 27/20 A2998 RMK A01 T02740200  RH  064%=      5-min Rain = 0
KWE2 251837Z 17020KT 28/20 A2998 RMK A01 T02760201  RH  064%=      5-min Rain = 0
KWE2 251838Z 16022G27KT 28/20 A2998 RMK A01 T02760201  RH  063%=      5-min Rain = 0
KWE2 251839Z 16024KT 28/20 A2997 RMK A01 T02750200  RH  064%=      5-min Rain = 0
KWE2 251840Z 16023KT 27/20 A2997 RMK A01 T02730199  RH  064%=      5-min Rain = 0
KWE2 251841Z 16024G29KT 27/20 A2997 RMK A01 T02730200  RH  064%=      5-min Rain = 0
KWE2 251842Z 17027KT 28/20 A2997 RMK A01 T02750198  RH  063%=      5-min Rain = 0
KWE2 251843Z 17022KT 27/20 A2997 RMK A01 T02710198  RH  064%=      5-min Rain = 0
KWE2 251844Z 17019KT 27/20 A2997 RMK A01 T02700200  RH  065%=      5-min Rain = 0
KWE2 251845Z 17020KT 27/20 A2997 RMK A01 T02720201  RH  065%=      5-min Rain = 0
KWE2 251846Z 17018G23KT 28/20 A2997 RMK A01 T02760202  RH  064%=      5-min Rain = 0
KWE2 251847Z 16020KT 28/20 A2997 RMK A01 T02800202  RH  063%=      5-min Rain = 0
KWE2 251848Z 16022KT 28/20 A2997 RMK A01 T02810201  RH  062%=      5-min Rain = 0
KWE2 251849Z 16023KT 28/20 A2997 RMK A01 T02790200  RH  062%=      5-min Rain = 0
KWE2 251850Z 16023KT 28/20 A2997 RMK A01 T02770199  RH  063%=      5-min Rain = 0
KWE2 251851Z 17023KT 28/20 A2997 RMK A01 T02770199  RH  062%=      5-min Rain = 0
KWE2 251852Z 17022KT 28/20 A2997 RMK A01 T02770198  RH  062%=      5-min Rain = 0
KWE2 251853Z 16023KT 28/20 A2997 RMK A01 T02790199  RH  062%=      5-min Rain = 0
KWE2 251854Z 16019KT 28/20 A2997 RMK A01 T02800200  RH  062%=      5-min Rain = 0
KWE2 251855Z 17024KT 28/20 A2997 RMK A01 T02800199  RH  061%=      5-min Rain = 0
KWE2 251856Z 17021KT 28/20 A2997 RMK A01 T02790199  RH  062%=      5-min Rain = 0
KWE2 251857Z 17019KT 28/20 A2997 RMK A01 T02780200  RH  063%=      5-min Rain = 0
KWE2 251858Z 17025KT 28/20 A2997 RMK A01 T02790201  RH  062%=      5-min Rain = 0
KWE2 251859Z 17019G24KT 28/20 A2997 RMK A01 T02810200  RH  061%=      5-min Rain = 0
KWE2 251900Z 17020KT 28/20 A2996 RMK A01 T02810201  RH  062%=      5-min Rain = 0
KWE2 251901Z 16019KT 28/20 A2996 RMK A01 T02800200  RH  062%=      5-min Rain = 0
KWE2 251902Z 17019KT 28/20 A2997 RMK A01 T02800200  RH  062%=      5-min Rain = 0
KWE2 251903Z 17021KT 28/20 A2996 RMK A01 T02800199  RH  061%=      5-min Rain = 0
KWE2 251904Z 17020KT 28/20 A2997 RMK A01 T02800200  RH  062%=      5-min Rain = 0
KWE2 251905Z 17022KT 28/20 A2997 RMK A01 T02830200  RH  061%=      5-min Rain = 0
KWE2 251906Z 17022KT 28/20 A2996 RMK A01 T02840200  RH  060%=      5-min Rain = 0
KWE2 251907Z 17021G26KT 28/20 A2996 RMK A01 T02830200  RH  061%=      5-min Rain = 0
KWE2 251908Z 17023KT 28/20 A2996 RMK A01 T02810200  RH  061%=      5-min Rain = 0
KWE2 251909Z 17021KT 28/20 A2996 RMK A01 T02810198  RH  061%=      5-min Rain = 0
KWE2 251910Z 18021KT 28/20 A2996 RMK A01 T02810199  RH  061%=      5-min Rain = 0
KWE2 251911Z 17019KT 28/20 A2996 RMK A01 T02810199  RH  061%=      5-min Rain = 0
KWE2 251912Z 16020KT 28/20 A2996 RMK A01 T02800200  RH  062%=      5-min Rain = 0
KWE2 251913Z 17022KT 28/20 A2996 RMK A01 T02800199  RH  061%=      5-min Rain = 0
KWE2 251914Z 17021KT 28/20 A2996 RMK A01 T02790199  RH  062%=      5-min Rain = 0
KWE2 251915Z 16022KT 28/20 A2996 RMK A01 T02780200  RH  063%=      5-min Rain = 0
KWE2 251916Z 17021KT 28/20 A2996 RMK A01 T02770199  RH  063%=      5-min Rain = 0
KWE2 251917Z 18021KT 28/20 A2996 RMK A01 T02780198  RH  062%=      5-min Rain = 0
KWE2 251918Z 17020G25KT 28/20 A2996 RMK A01 T02790198  RH  062%=      5-min Rain = 0
KWE2 251919Z 17022KT 28/20 A2996 RMK A01 T02790198  RH  061%=      5-min Rain = 0
KWE2 251920Z 17022KT 28/20 A2996 RMK A01 T02790199  RH  062%=      5-min Rain = 0
KWE2 251921Z 16024KT 28/20 A2996 RMK A01 T02790198  RH  061%=      5-min Rain = 0
KWE2 251922Z 16022KT 28/20 A2996 RMK A01 T02790198  RH  062%=      5-min Rain = 0
KWE2 251923Z 16021KT 28/20 A2996 RMK A01 T02780199  RH  062%=      5-min Rain = 0
KWE2 251924Z 17019KT 28/20 A2996 RMK A01 T02780199  RH  062%=      5-min Rain = 0
KWE2 251925Z 17023KT 28/20 A2996 RMK A01 T02790198  RH  062%=      5-min Rain = 0
KWE2 251926Z 17021KT 28/20 A2996 RMK A01 T02780198  RH  062%=      5-min Rain = 0
KWE2 251927Z 17022KT 28/20 A2996 RMK A01 T02780198  RH  062%=      5-min Rain = 0
KWE2 251928Z 17024KT 28/20 A2995 RMK A01 T02800198  RH  061%=      5-min Rain = 0
KWE2 251929Z 17023KT 28/20 A2995 RMK A01 T02800196  RH  060%=      5-min Rain = 0
KWE2 251930Z 18024KT 28/20 A2995 RMK A01 T02800197  RH  061%=      5-min Rain = 0
KWE2 251931Z 17023KT 28/20 A2995 RMK A01 T02830197  RH  060%=      5-min Rain = 0
KWE2 251932Z 18021KT 28/20 A2996 RMK A01 T02840197  RH  059%=      5-min Rain = 0
KWE2 251933Z 17022KT 28/20 A2996 RMK A01 T02830197  RH  060%=      5-min Rain = 0
KWE2 251934Z 17022KT 28/20 A2995 RMK A01 T02830197  RH  060%=      5-min Rain = 0
KWE2 251935Z 17020KT 28/20 A2995 RMK A01 T02820197  RH  060%=      5-min Rain = 0
KWE2 251936Z 17020KT 28/20 A2995 RMK A01 T02840198  RH  059%=      5-min Rain = 0
KWE2 251937Z 17020KT 29/20 A2995 RMK A01 T02870198  RH  059%=      5-min Rain = 0
KWE2 251938Z 17025KT 29/20 A2995 RMK A01 T02860198  RH  059%=      5-min Rain = 0
KWE2 251939Z 18024KT 29/20 A2995 RMK A01 T02850197  RH  059%=      5-min Rain = 0
KWE2 251940Z 17023KT 28/20 A2995 RMK A01 T02840197  RH  059%=      5-min Rain = 0
KWE2 251941Z 17023KT 28/20 A2995 RMK A01 T02830197  RH  059%=      5-min Rain = 0
KWE2 251942Z 18022KT 28/20 A2995 RMK A01 T02830197  RH  059%=      5-min Rain = 0
KWE2 251943Z 18022KT 28/20 A2995 RMK A01 T02840197  RH  059%=      5-min Rain = 0
KWE2 251944Z 18022KT 28/20 A2995 RMK A01 T02830196  RH  059%=      5-min Rain = 0
KWE2 251945Z 18022KT 28/20 A2995 RMK A01 T02840197  RH  059%=      5-min Rain = 0
KWE2 251946Z 18021KT 29/20 A2995 RMK A01 T02850196  RH  059%=      5-min Rain = 0
KWE2 251947Z 17024KT 28/20 A2995 RMK A01 T02830196  RH  059%=      5-min Rain = 0
KWE2 251948Z 18022KT 28/20 A2995 RMK A01 T02820195  RH  059%=      5-min Rain = 0
KWE2 251949Z 17021KT 28/20 A2995 RMK A01 T02820197  RH  060%=      5-min Rain = 0
KWE2 251950Z 17020KT 28/20 A2995 RMK A01 T02840198  RH  060%=      5-min Rain = 0
KWE2 251951Z 17021KT 29/20 A2995 RMK A01 T02880200  RH  059%=      5-min Rain = 0
KWE2 251952Z 17020KT 29/20 A2995 RMK A01 T02890199  RH  058%=      5-min Rain = 0
KWE2 251953Z 18021KT 29/20 A2994 RMK A01 T02890199  RH  058%=      5-min Rain = 0
KWE2 251954Z 17020G25KT 29/20 A2995 RMK A01 T02900198  RH  058%=      5-min Rain = 0
KWE2 251955Z 16022KT 29/20 A2994 RMK A01 T02900200  RH  058%=      5-min Rain = 0
KWE2 251956Z 16024KT 29/20 A2994 RMK A01 T02900199  RH  058%=      5-min Rain = 0
KWE2 251957Z 16021KT 29/20 A2994 RMK A01 T02870197  RH  058%=      5-min Rain = 0
KWE2 251958Z 16022KT 29/20 A2995 RMK A01 T02860198  RH  059%=      5-min Rain = 0
KWE2 251959Z 17022KT 29/20 A2994 RMK A01 T02890198  RH  058%=      5-min Rain = 0
KWE2 252000Z 17025KT 29/20 A2994 RMK A01 T02890199  RH  058%=      5-min Rain = 0
KWE2 252001Z 17024KT 29/20 A2994 RMK A01 T02900200  RH  058%=      5-min Rain = 0
KWE2 252002Z 17022G27KT 29/20 A2994 RMK A01 T02910198  RH  057%=      5-min Rain = 0
KWE2 252003Z 17025KT 29/20 A2994 RMK A01 T02890199  RH  058%=      5-min Rain = 0
KWE2 252004Z 17024KT 29/20 A2994 RMK A01 T02880198  RH  058%=      5-min Rain = 0
KWE2 252005Z 17020KT 29/20 A2994 RMK A01 T02890198  RH  058%=      5-min Rain = 0
KWE2 252006Z 16021G26KT 29/20 A2994 RMK A01 T02910200  RH  058%=      5-min Rain = 0
KWE2 252007Z 17021KT 30/20 A2994 RMK A01 T02950200  RH  056%=      5-min Rain = 0
KWE2 252008Z 18020G25KT 30/20 A2994 RMK A01 T02970199  RH  056%=      5-min Rain = 0
KWE2 252009Z 17021KT 30/20 A2994 RMK A01 T02970197  RH  055%=      5-min Rain = 0
KWE2 252010Z 18021KT 29/20 A2994 RMK A01 T02940197  RH  056%=      5-min Rain = 0
KWE2 252011Z 18022G27KT 30/20 A2994 RMK A01 T02950197  RH  056%=      5-min Rain = 0
KWE2 252012Z 18022KT 30/20 A2994 RMK A01 T02970196  RH  055%=      5-min Rain = 0
KWE2 252013Z 17021KT 30/20 A2994 RMK A01 T02970197  RH  055%=      5-min Rain = 0
KWE2 252014Z 17021KT 30/20 A2994 RMK A01 T02980195  RH  054%=      5-min Rain = 0
KWE2 252015Z 18022KT 30/19 A2994 RMK A01 T02960194  RH  054%=      5-min Rain = 0
KWE2 252016Z 18022G27KT 30/20 A2994 RMK A01 T02950197  RH  055%=      5-min Rain = 0
KWE2 252017Z 18024KT 30/20 A2994 RMK A01 T02950197  RH  056%=      5-min Rain = 0
KWE2 252018Z 18025KT 29/20 A2994 RMK A01 T02940196  RH  056%=      5-min Rain = 0
KWE2 252019Z 17024KT 30/20 A2994 RMK A01 T02950196  RH  055%=      5-min Rain = 0
KWE2 252020Z 18023KT 30/20 A2994 RMK A01 T02950196  RH  055%=      5-min Rain = 0
KWE2 252021Z 18020KT 30/20 A2994 RMK A01 T02950197  RH  056%=      5-min Rain = 0
KWE2 252022Z 17022KT 30/20 A2994 RMK A01 T02970198  RH  055%=      5-min Rain = 0
KWE2 252023Z 16021KT 30/20 A2994 RMK A01 T02990197  RH  055%=      5-min Rain = 0
KWE2 252024Z 16023G29KT 30/20 A2993 RMK A01 T02990198  RH  055%=      5-min Rain = 0
KWE2 252025Z 17024KT 30/20 A2993 RMK A01 T03000196  RH  054%=      5-min Rain = 0
KWE2 252026Z 16023KT 30/20 A2993 RMK A01 T02990197  RH  054%=      5-min Rain = 0
KWE2 252027Z 16025KT 30/20 A2993 RMK A01 T02990196  RH  054%=      5-min Rain = 0
KWE2 252028Z 16021KT 30/20 A2993 RMK A01 T02950195  RH  055%=      5-min Rain = 0
KWE2 252029Z 15024KT 30/20 A2993 RMK A01 T02950196  RH  055%=      5-min Rain = 0
KWE2 252030Z 17023KT 30/20 A2993 RMK A01 T02970196  RH  054%=      5-min Rain = 0
KWE2 252031Z 18024KT 30/20 A2993 RMK A01 T02980195  RH  054%=      5-min Rain = 0
KWE2 252032Z 18025KT 30/20 A2994 RMK A01 T02980195  RH  054%=      5-min Rain = 0
KWE2 252033Z 17022KT 30/20 A2994 RMK A01 T02990196  RH  054%=      5-min Rain = 0
KWE2 252034Z 17018KT 30/20 A2993 RMK A01 T03000195  RH  053%=      5-min Rain = 0
KWE2 252035Z 16021G26KT 30/20 A2993 RMK A01 T03000195  RH  054%=      5-min Rain = 0
KWE2 252036Z 17022G27KT 30/19 A2993 RMK A01 T02990193  RH  053%=      5-min Rain = 0
KWE2 252037Z 17019KT 30/19 A2993 RMK A01 T02960193  RH  054%=      5-min Rain = 0
KWE2 252038Z 18020KT 30/20 A2993 RMK A01 T02980195  RH  054%=      5-min Rain = 0
KWE2 252039Z 17022KT 30/20 A2993 RMK A01 T03020195  RH  053%=      5-min Rain = 0
KWE2 252040Z 18019KT 30/19 A2993 RMK A01 T03040194  RH  052%=      5-min Rain = 0
KWE2 252041Z 18021KT 31/19 A2993 RMK A01 T03050194  RH  051%=      5-min Rain = 0
KWE2 252042Z 17023KT 31/20 A2993 RMK A01 T03050196  RH  052%=      5-min Rain = 0
KWE2 252043Z 17022KT 30/20 A2993 RMK A01 T03020195  RH  053%=      5-min Rain = 0
KWE2 252044Z 16024G29KT 30/20 A2994 RMK A01 T03030196  RH  053%=      5-min Rain = 0
KWE2 252045Z 16025KT 30/20 A2994 RMK A01 T03040195  RH  052%=      5-min Rain = 0
KWE2 252046Z 18023G28KT 30/20 A2994 RMK A01 T03040196  RH  053%=      5-min Rain = 0
KWE2 252047Z 18026KT 30/20 A2994 RMK A01 T03040195  RH  052%=      5-min Rain = 0
KWE2 252048Z 17025KT 30/20 A2994 RMK A01 T03010195  RH  053%=      5-min Rain = 0
KWE2 252049Z 18024KT 30/19 A2994 RMK A01 T03010194  RH  053%=      5-min Rain = 0
KWE2 252050Z 18024KT 30/20 A2994 RMK A01 T03000195  RH  053%=      5-min Rain = 0
KWE2 252051Z 17022KT 30/20 A2994 RMK A01 T02990196  RH  054%=      5-min Rain = 0
KWE2 252052Z 17023KT 30/20 A2994 RMK A01 T03000196  RH  054%=      5-min Rain = 0
KWE2 252053Z 17023KT 30/20 A2994 RMK A01 T02990195  RH  054%=      5-min Rain = 0
KWE2 252054Z 17024G29KT 30/19 A2994 RMK A01 T02980194  RH  054%=      5-min Rain = 0
KWE2 252055Z 18022KT 30/19 A2994 RMK A01 T02980192  RH  053%=      5-min Rain = 0
KWE2 252056Z 17022KT 30/19 A2994 RMK A01 T02990194  RH  053%=      5-min Rain = 0
KWE2 252057Z 18023KT 30/20 A2994 RMK A01 T03040196  RH  052%=      5-min Rain = 0
KWE2 252058Z 17022KT 31/20 A2994 RMK A01 T03090197  RH  051%=      5-min Rain = 0
KWE2 252059Z 17025KT 31/20 A2994 RMK A01 T03080195  RH  051%=      5-min Rain = 0
KWE2 252100Z 17025KT 30/19 A2994 RMK A01 T03020194  RH  052%=      5-min Rain = 0
KWE2 252101Z 17024KT 30/19 A2994 RMK A01 T02990194  RH  053%=      5-min Rain = 0
KWE2 252102Z 17025KT 30/19 A2994 RMK A01 T02990193  RH  053%=      5-min Rain = 0
KWE2 252103Z 16023KT 30/19 A2994 RMK A01 T02980193  RH  053%=      5-min Rain = 0
KWE2 252104Z 16024KT 30/19 A2993 RMK A01 T02950193  RH  054%=      5-min Rain = 0
KWE2 252105Z 17024KT 29/19 A2993 RMK A01 T02940192  RH  054%=      5-min Rain = 0
KWE2 252106Z 17023KT 29/19 A2993 RMK A01 T02920193  RH  055%=      5-min Rain = 0
KWE2 252107Z 17025KT 29/19 A2993 RMK A01 T02900192  RH  056%=      5-min Rain = 0
KWE2 252108Z 16024KT 29/19 A2993 RMK A01 T02880192  RH  056%=      5-min Rain = 0
KWE2 252109Z 17021KT 29/19 A2994 RMK A01 T02870193  RH  057%=      5-min Rain = 0
KWE2 252110Z 17021KT 29/19 A2994 RMK A01 T02860193  RH  057%=      5-min Rain = 0
KWE2 252111Z 17021KT 29/19 A2994 RMK A01 T02850194  RH  058%=      5-min Rain = 0
KWE2 252112Z 17021KT 28/19 A2994 RMK A01 T02840194  RH  058%=      5-min Rain = 0
KWE2 252113Z 17018KT 28/19 A2994 RMK A01 T02830193  RH  058%=      5-min Rain = 0
KWE2 252114Z 17019KT 28/19 A2994 RMK A01 T02820192  RH  058%=      5-min Rain = 0
KWE2 252115Z 17018KT 28/19 A2994 RMK A01 T02810191  RH  058%=      5-min Rain = 0
KWE2 252116Z 17019KT 28/19 A2994 RMK A01 T02810191  RH  058%=      5-min Rain = 0
KWE2 252117Z 17021KT 28/19 A2994 RMK A01 T02790191  RH  059%=      5-min Rain = 0
KWE2 252118Z 17020KT 28/19 A2994 RMK A01 T02780192  RH  060%=      5-min Rain = 0
KWE2 252119Z 17021KT 28/19 A2994 RMK A01 T02770193  RH  060%=      5-min Rain = 0
KWE2 252120Z 17023KT 28/19 A2993 RMK A01 T02760193  RH  061%=      5-min Rain = 0
KWE2 252121Z 17022KT 28/19 A2993 RMK A01 T02750193  RH  061%=      5-min Rain = 0
KWE2 252122Z 17022KT 28/19 A2993 RMK A01 T02750194  RH  061%=      5-min Rain = 0
KWE2 252123Z 17020KT 27/19 A2993 RMK A01 T02740194  RH  062%=      5-min Rain = 0
KWE2 252124Z 17022KT 27/19 A2993 RMK A01 T02730193  RH  062%=      5-min Rain = 0
KWE2 252125Z 17022KT 27/19 A2993 RMK A01 T02720193  RH  062%=      5-min Rain = 0
KWE2 252126Z 17023KT 27/19 A2993 RMK A01 T02710193  RH  062%=      5-min Rain = 0
KWE2 252127Z 17023KT 27/19 A2993 RMK A01 T02700192  RH  062%=      5-min Rain = 0
KWE2 252128Z 17020KT 27/19 A2993 RMK A01 T02700192  RH  062%=      5-min Rain = 0
KWE2 252129Z 17020KT 27/19 A2993 RMK A01 T02690192  RH  062%=      5-min Rain = 0
KWE2 252130Z 17021KT 27/19 A2993 RMK A01 T02690192  RH  063%=      5-min Rain = 0
KWE2 252131Z 17018KT 27/19 A2993 RMK A01 T02690192  RH  063%=      5-min Rain = 0
KWE2 252132Z 17018KT 27/19 A2993 RMK A01 T02680192  RH  063%=      5-min Rain = 0
KWE2 252133Z 17019KT 27/19 A2993 RMK A01 T02680193  RH  063%=      5-min Rain = 0
KWE2 252134Z 16022G27KT 27/19 A2992 RMK A01 T02680193  RH  063%=      5-min Rain = 0
KWE2 252135Z 16023KT 27/19 A2992 RMK A01 T02680193  RH  064%=      5-min Rain = 0
KWE2 252136Z 16019KT 27/19 A2992 RMK A01 T02670193  RH  064%=      5-min Rain = 0
KWE2 252137Z 16020KT 27/19 A2992 RMK A01 T02670193  RH  064%=      5-min Rain = 0
KWE2 252138Z 16018KT 27/19 A2992 RMK A01 T02670193  RH  064%=      5-min Rain = 0
KWE2 252139Z 16020KT 27/19 A2992 RMK A01 T02670193  RH  064%=      5-min Rain = 0
KWE2 252140Z 16022KT 27/19 A2992 RMK A01 T02660193  RH  064%=      5-min Rain = 0
KWE2 252141Z 16022KT 27/19 A2991 RMK A01 T02660193  RH  064%=      5-min Rain = 0
KWE2 252142Z 16021KT 27/19 A2991 RMK A01 T02660193  RH  064%=      5-min Rain = 0
KWE2 252143Z 16022KT 27/19 A2991 RMK A01 T02650193  RH  065%=      5-min Rain = 0
KWE2 252144Z 15022KT 27/19 A299 RMK A01 T02650193  RH  065%=      5-min Rain = 0
KWE2 252145Z 15021KT 26/19 A299 RMK A01 T02640194  RH  065%=      5-min Rain = 0
KWE2 252146Z 15023KT 26/19 A2989 RMK A01 T02640194  RH  065%=      5-min Rain = 0
KWE2 252147Z 15024KT 26/19 A2989 RMK A01 T02640194  RH  065%=      5-min Rain = 0
KWE2 252148Z 15026KT 26/19 A299 RMK A01 T02630194  RH  065%=      5-min Rain = 0
KWE2 252149Z 16024KT 26/19 A299 RMK A01 T02630193  RH  065%=      5-min Rain = 0
KWE2 252150Z 16023KT 26/19 A299 RMK A01 T02630193  RH  066%=      5-min Rain = 0
KWE2 252151Z 16020KT 26/19 A2991 RMK A01 T02630193  RH  066%=      5-min Rain = 0
KWE2 252152Z 16019KT 26/19 A2991 RMK A01 T02630193  RH  066%=      5-min Rain = 0
KWE2 252153Z 16019KT 26/19 A2991 RMK A01 T02630194  RH  066%=      5-min Rain = 0
KWE2 252154Z 16022G27KT 26/19 A2991 RMK A01 T02630194  RH  066%=      5-min Rain = 0
KWE2 252155Z 16024KT 26/19 A2992 RMK A01 T02630193  RH  065%=      5-min Rain = 0
KWE2 252156Z 16025KT 26/19 A2992 RMK A01 T02630193  RH  065%=      5-min Rain = 0
KWE2 252157Z 16025KT 26/19 A2992 RMK A01 T02630193  RH  065%=      5-min Rain = 0
KWE2 252158Z 16025KT 26/19 A2993 RMK A01 T02630193  RH  065%=      5-min Rain = 0
KWE2 252159Z 16027KT 26/19 A2993 RMK A01 T02630193  RH  065%=      5-min Rain = 0
KWE2 252200Z 16023KT 26/19 A2993 RMK A01 T02640194  RH  065%=      5-min Rain = 0
KWE2 252201Z 16025KT 26/19 A2993 RMK A01 T02630194  RH  066%=      5-min Rain = 0
KWE2 252202Z 16024KT 26/19 A2993 RMK A01 T02640194  RH  066%=      5-min Rain = 0
KWE2 252203Z 16024KT 26/19 A2993 RMK A01 T02640194  RH  065%=      5-min Rain = 0
KWE2 252204Z 16022G29KT 26/19 A2993 RMK A01 T02640194  RH  065%=      5-min Rain = 0
KWE2 252205Z 16023KT 27/19 A2993 RMK A01 T02650194  RH  065%=      5-min Rain = 0
KWE2 252206Z 16026KT 27/19 A2993 RMK A01 T02660194  RH  065%=      5-min Rain = 0
KWE2 252207Z 16024KT 27/20 A2993 RMK A01 T02700195  RH  064%=      5-min Rain = 0
KWE2 252208Z 16023KT 27/20 A2993 RMK A01 T02730195  RH  063%=      5-min Rain = 0
KWE2 252209Z 16024KT 28/20 A2993 RMK A01 T02760196  RH  062%=      5-min Rain = 0
KWE2 252210Z 16025KT 28/20 A2993 RMK A01 T02770195  RH  061%=      5-min Rain = 0
KWE2 252211Z 16026KT 28/20 A2993 RMK A01 T02770195  RH  061%=      5-min Rain = 0
KWE2 252212Z 16023KT 28/20 A2993 RMK A01 T02770195  RH  061%=      5-min Rain = 0
KWE2 252213Z 16022KT 28/20 A2993 RMK A01 T02780195  RH  061%=      5-min Rain = 0
KWE2 252214Z 17023KT 28/20 A2993 RMK A01 T02800196  RH  060%=      5-min Rain = 0
KWE2 252215Z 16024KT 28/20 A2993 RMK A01 T02830195  RH  059%=      5-min Rain = 0
KWE2 252216Z 17022KT 29/20 A2993 RMK A01 T02850195  RH  058%=      5-min Rain = 0
KWE2 252217Z 17021G27KT 29/20 A2993 RMK A01 T02860196  RH  058%=      5-min Rain = 0
KWE2 252218Z 16023G28KT 29/20 A2993 RMK A01 T02870196  RH  058%=      5-min Rain = 0
KWE2 252219Z 16020G25KT 29/20 A2993 RMK A01 T02870196  RH  058%=      5-min Rain = 0
KWE2 252220Z 16022KT 29/20 A2993 RMK A01 T02890196  RH  057%=      5-min Rain = 0
KWE2 252221Z 16020KT 29/20 A2993 RMK A01 T02880197  RH  058%=      5-min Rain = 0
KWE2 252222Z 16026KT 29/19 A2993 RMK A01 T02870194  RH  057%=      5-min Rain = 0
KWE2 252223Z 17023KT 29/19 A2993 RMK A01 T02850193  RH  057%=      5-min Rain = 0
KWE2 252224Z 16023G28KT 28/19 A2993 RMK A01 T02840193  RH  058%=      5-min Rain = 0
KWE2 252225Z 16024KT 28/19 A2993 RMK A01 T02830193  RH  058%=      5-min Rain = 0
KWE2 252226Z 17022KT 28/19 A2993 RMK A01 T02840193  RH  058%=      5-min Rain = 0
KWE2 252227Z 17023KT 29/19 A2993 RMK A01 T02850192  RH  057%=      5-min Rain = 0
KWE2 252228Z 17022KT 29/19 A2993 RMK A01 T02850192  RH  057%=      5-min Rain = 0
KWE2 252229Z 16024KT 29/19 A2993 RMK A01 T02860192  RH  057%=      5-min Rain = 0
KWE2 252230Z 17023KT 28/19 A2993 RMK A01 T02840191  RH  057%=      5-min Rain = 0
KWE2 252231Z 17023KT 28/19 A2993 RMK A01 T02830190  RH  057%=      5-min Rain = 0
KWE2 252232Z 17019G24KT 28/19 A2993 RMK A01 T02820190  RH  057%=      5-min Rain = 0
KWE2 252233Z 17022KT 28/19 A2993 RMK A01 T02840191  RH  057%=      5-min Rain = 0
KWE2 252234Z 17021KT 29/19 A2993 RMK A01 T02850191  RH  057%=      5-min Rain = 0
KWE2 252235Z 16023KT 29/19 A2993 RMK A01 T02850191  RH  057%=      5-min Rain = 0
KWE2 252236Z 17023KT 29/19 A2993 RMK A01 T02850190  RH  056%=      5-min Rain = 0
KWE2 252237Z 17026KT 28/19 A2993 RMK A01 T02840191  RH  057%=      5-min Rain = 0
KWE2 252238Z 17024KT 28/19 A2993 RMK A01 T02840191  RH  057%=      5-min Rain = 0
KWE2 252239Z 17023KT 28/19 A2993 RMK A01 T02840191  RH  057%=      5-min Rain = 0
KWE2 252240Z 17025KT 28/19 A2993 RMK A01 T02830190  RH  057%=      5-min Rain = 0
KWE2 252241Z 17022KT 28/19 A2993 RMK A01 T02820191  RH  058%=      5-min Rain = 0
KWE2 252242Z 16022KT 29/19 A2992 RMK A01 T02860194  RH  057%=      5-min Rain = 0
KWE2 252243Z 17022KT 29/19 A2992 RMK A01 T02890194  RH  056%=      5-min Rain = 0
KWE2 252244Z 16027G32KT 29/19 A2992 RMK A01 T02910193  RH  056%=      5-min Rain = 0
KWE2 252245Z 16024KT 29/19 A2992 RMK A01 T02910192  RH  055%=      5-min Rain = 0
KWE2 252246Z 16023KT 29/19 A2992 RMK A01 T02910192  RH  055%=      5-min Rain = 0
KWE2 252247Z 16024KT 29/19 A2992 RMK A01 T02900191  RH  055%=      5-min Rain = 0
KWE2 252248Z 17026KT 29/19 A2992 RMK A01 T02890191  RH  055%=      5-min Rain = 0
KWE2 252249Z 16022KT 29/19 A2992 RMK A01 T02870190  RH  056%=      5-min Rain = 0
KWE2 252250Z 16021KT 29/19 A2992 RMK A01 T02880192  RH  056%=      5-min Rain = 0
KWE2 252251Z 16025G30KT 29/19 A2992 RMK A01 T02890192  RH  056%=      5-min Rain = 0
KWE2 252252Z 17024KT 29/19 A2992 RMK A01 T02890190  RH  055%=      5-min Rain = 0
KWE2 252253Z 17023KT 29/19 A2992 RMK A01 T02880189  RH  055%=      5-min Rain = 0
KWE2 252254Z 17024KT 29/19 A2992 RMK A01 T02870190  RH  056%=      5-min Rain = 0
KWE2 252255Z 17025KT 29/19 A2992 RMK A01 T02860189  RH  056%=      5-min Rain = 0
KWE2 252256Z 17023KT 29/19 A2992 RMK A01 T02850190  RH  056%=      5-min Rain = 0
KWE2 252257Z 17024KT 29/19 A2992 RMK A01 T02850191  RH  057%=      5-min Rain = 0
KWE2 252258Z 18020KT 29/19 A2992 RMK A01 T02850191  RH  057%=      5-min Rain = 0
KWE2 252259Z 18022KT 29/19 A2991 RMK A01 T02870191  RH  056%=      5-min Rain = 0
KWE2 252300Z 18021KT 29/19 A2991 RMK A01 T02900191  RH  055%=      5-min Rain = 0
KWE2 252301Z 18021G26KT 29/19 A2991 RMK A01 T02910192  RH  055%=      5-min Rain = 0
KWE2 252302Z 18025KT 29/19 A2991 RMK A01 T02910191  RH  055%=      5-min Rain = 0
KWE2 252303Z 18024KT 29/19 A2991 RMK A01 T02890190  RH  055%=      5-min Rain = 0
KWE2 252304Z 18023KT 29/19 A2991 RMK A01 T02890190  RH  055%=      5-min Rain = 0
KWE2 252305Z 18024KT 29/19 A2991 RMK A01 T02910187  RH  054%=      5-min Rain = 0
KWE2 252306Z 17025KT 29/19 A2991 RMK A01 T02900187  RH  054%=      5-min Rain = 0
KWE2 252307Z 17023KT 29/19 A2991 RMK A01 T02880189  RH  055%=      5-min Rain = 0
KWE2 252308Z 17023KT 29/19 A2991 RMK A01 T02870190  RH  056%=      5-min Rain = 0
KWE2 252309Z 17024KT 29/19 A2991 RMK A01 T02880189  RH  055%=      5-min Rain = 0
KWE2 252310Z 16026KT 29/19 A2991 RMK A01 T02900187  RH  054%=      5-min Rain = 0
KWE2 252311Z 17024G29KT 29/19 A2991 RMK A01 T02880187  RH  054%=      5-min Rain = 0
KWE2 252312Z 17024KT 29/19 A2991 RMK A01 T02880187  RH  054%=      5-min Rain = 0
KWE2 252313Z 17024KT 29/19 A2991 RMK A01 T02880188  RH  055%=      5-min Rain = 0
KWE2 252314Z 18024KT 29/19 A2991 RMK A01 T02880187  RH  054%=      5-min Rain = 0
KWE2 252315Z 18023KT 29/19 A2991 RMK A01 T02880188  RH  055%=      5-min Rain = 0
KWE2 252316Z 17024G29KT 29/19 A2991 RMK A01 T02880188  RH  055%=      5-min Rain = 0
KWE2 252317Z 18024KT 29/19 A2991 RMK A01 T02880188  RH  055%=      5-min Rain = 0
KWE2 252318Z 18023KT 29/19 A2991 RMK A01 T02870188  RH  055%=      5-min Rain = 0
KWE2 252319Z 18023KT 29/19 A2991 RMK A01 T02870188  RH  055%=      5-min Rain = 0
KWE2 252320Z 18021KT 29/19 A2991 RMK A01 T02870188  RH  055%=      5-min Rain = 0
KWE2 252321Z 18022KT 29/19 A2991 RMK A01 T02870189  RH  055%=      5-min Rain = 0
KWE2 252322Z 18022KT 29/19 A2991 RMK A01 T02880190  RH  056%=      5-min Rain = 0
KWE2 252323Z 18025G30KT 29/19 A2991 RMK A01 T02880191  RH  056%=      5-min Rain = 0
KWE2 252324Z 17022KT 29/19 A2991 RMK A01 T02870190  RH  056%=      5-min Rain = 0
KWE2 252325Z 17021KT 29/19 A2991 RMK A01 T02880191  RH  056%=      5-min Rain = 0
KWE2 252326Z 17020KT 29/19 A2991 RMK A01 T02890190  RH  055%=      5-min Rain = 0
KWE2 252327Z 17022KT 29/19 A2991 RMK A01 T02890190  RH  055%=      5-min Rain = 0
KWE2 252328Z 18023KT 29/19 A2991 RMK A01 T02890190  RH  055%=      5-min Rain = 0
KWE2 252329Z 18022KT 29/19 A2991 RMK A01 T02880192  RH  056%=      5-min Rain = 0
KWE2 252330Z 18023KT 29/19 A2991 RMK A01 T02870193  RH  057%=      5-min Rain = 0
KWE2 252331Z 18022KT 29/19 A2992 RMK A01 T02850191  RH  057%=      5-min Rain = 0
KWE2 252332Z 17024KT 28/19 A2992 RMK A01 T02830192  RH  057%=      5-min Rain = 0
KWE2 252333Z 17022KT 28/19 A2992 RMK A01 T02810191  RH  058%=      5-min Rain = 0
KWE2 252334Z 16023G28KT 28/19 A2992 RMK A01 T02810190  RH  058%=      5-min Rain = 0
KWE2 252335Z 17020G26KT 28/19 A2992 RMK A01 T02830191  RH  058%=      5-min Rain = 0
KWE2 252336Z 17021G26KT 29/19 A2992 RMK A01 T02850192  RH  057%=      5-min Rain = 0
KWE2 252337Z 17024KT 29/19 A2992 RMK A01 T02860190  RH  056%=      5-min Rain = 0
KWE2 252338Z 17024KT 28/19 A2992 RMK A01 T02840188  RH  056%=      5-min Rain = 0
KWE2 252339Z 17025KT 28/19 A2992 RMK A01 T02830189  RH  057%=      5-min Rain = 0
KWE2 252340Z 17024KT 28/19 A2992 RMK A01 T02840191  RH  057%=      5-min Rain = 0
KWE2 252341Z 17023KT 28/19 A2992 RMK A01 T02830191  RH  057%=      5-min Rain = 0
KWE2 252342Z 17024KT 28/19 A2992 RMK A01 T02830191  RH  058%=      5-min Rain = 0
KWE2 252343Z 17022G27KT 28/19 A2992 RMK A01 T02820191  RH  058%=      5-min Rain = 0
KWE2 252344Z 17023KT 28/19 A2992 RMK A01 T02820191  RH  058%=      5-min Rain = 0
KWE2 252345Z 17021KT 28/19 A2992 RMK A01 T02810191  RH  058%=      5-min Rain = 0
KWE2 252346Z 17024G30KT 28/19 A2992 RMK A01 T02810190  RH  058%=      5-min Rain = 0
KWE2 252347Z 17022KT 28/19 A2992 RMK A01 T02790188  RH  058%=      5-min Rain = 0
KWE2 252348Z 17022G27KT 28/19 A2992 RMK A01 T02790188  RH  058%=      5-min Rain = 0
KWE2 252349Z 17024KT 28/19 A2992 RMK A01 T02790189  RH  058%=      5-min Rain = 0
KWE2 252350Z 17024G29KT 28/19 A2992 RMK A01 T02790188  RH  058%=      5-min Rain = 0
KWE2 252351Z 17022KT 28/19 A2992 RMK A01 T02780189  RH  058%=      5-min Rain = 0
KWE2 252352Z 17022KT 28/19 A2992 RMK A01 T02780189  RH  058%=      5-min Rain = 0
KWE2 252353Z 18021KT 28/19 A2992 RMK A01 T02790190  RH  059%=      5-min Rain = 0
KWE2 252354Z 17021KT 28/19 A2992 RMK A01 T02790190  RH  058%=      5-min Rain = 0
KWE2 252355Z 17022KT 28/19 A2992 RMK A01 T02790189  RH  058%=      5-min Rain = 0
KWE2 252356Z 17022KT 28/19 A2992 RMK A01 T02790189  RH  058%=      5-min Rain = 0
KWE2 252357Z 17021KT 28/19 A2992 RMK A01 T02780189  RH  058%=      5-min Rain = 0
KWE2 252358Z 17023KT 28/19 A2992 RMK A01 T02780188  RH  058%=      5-min Rain = 0
KWE2 252359Z 17023KT 28/19 A2992 RMK A01 T02780188  RH  058%=      5-min Rain = 0
KWE2 260000Z 17021KT 28/19 A2992 RMK A01 T02780188  RH  058%=      5-min Rain = 0
KWE2 260001Z 17020G25KT 28/19 A2992 RMK A01 T02780187  RH  057%=      5-min Rain = 0
KWE2 260002Z 17020KT 28/19 A2992 RMK A01 T02790187  RH  057%=      5-min Rain = 0
KWE2 260003Z 17019KT 28/19 A2992 RMK A01 T02790188  RH  057%=      5-min Rain = 0
KWE2 260004Z 17022KT 28/19 A2992 RMK A01 T02800188  RH  058%=      5-min Rain = 0
KWE2 260005Z 17023KT 28/19 A2992 RMK A01 T02790188  RH  058%=      5-min Rain = 0
KWE2 260006Z 17022KT 28/19 A2992 RMK A01 T02780188  RH  058%=      5-min Rain = 0
KWE2 260007Z 16020KT 28/19 A2992 RMK A01 T02790189  RH  058%=      5-min Rain = 0
KWE2 260008Z 17021KT 28/19 A2992 RMK A01 T02790188  RH  058%=      5-min Rain = 0
KWE2 260009Z 17019KT 28/19 A2992 RMK A01 T02790189  RH  058%=      5-min Rain = 0
KWE2 260010Z 17020KT 28/19 A2992 RMK A01 T02790190  RH  058%=      5-min Rain = 0
KWE2 260011Z 17018KT 28/19 A2992 RMK A01 T02790190  RH  059%=      5-min Rain = 0
KWE2 260012Z 17019KT 28/19 A2992 RMK A01 T02790191  RH  059%=      5-min Rain = 0
KWE2 260013Z 17020KT 28/19 A2992 RMK A01 T02780191  RH  059%=      5-min Rain = 0
KWE2 260014Z 17021KT 28/19 A2992 RMK A01 T02780191  RH  059%=      5-min Rain = 0
KWE2 260015Z 17022KT 28/19 A2992 RMK A01 T02770190  RH  059%=      5-min Rain = 0
KWE2 260016Z 17021KT 28/19 A2992 RMK A01 T02770189  RH  059%=      5-min Rain = 0
KWE2 260017Z 17022KT 28/19 A2992 RMK A01 T02770189  RH  059%=      5-min Rain = 0
KWE2 260018Z 17020KT 28/19 A2992 RMK A01 T02770188  RH  059%=      5-min Rain = 0
KWE2 260019Z 17021KT 28/19 A2992 RMK A01 T02770188  RH  058%=      5-min Rain = 0
KWE2 260020Z 17023KT 28/19 A2992 RMK A01 T02770188  RH  058%=      5-min Rain = 0
KWE2 260021Z 17020KT 28/19 A2992 RMK A01 T02770188  RH  058%=      5-min Rain = 0
KWE2 260022Z 17021KT 28/19 A2993 RMK A01 T02770189  RH  059%=      5-min Rain = 0
KWE2 260023Z 17021KT 28/19 A2993 RMK A01 T02760188  RH  059%=      5-min Rain = 0
KWE2 260024Z 17023KT 28/19 A2993 RMK A01 T02760188  RH  059%=      5-min Rain = 0
KWE2 260025Z 18021KT 28/19 A2993 RMK A01 T02760187  RH  058%=      5-min Rain = 0
KWE2 260026Z 17022KT 28/19 A2993 RMK A01 T02760187  RH  058%=      5-min Rain = 0
KWE2 260027Z 17020KT 28/19 A2993 RMK A01 T02760188  RH  059%=      5-min Rain = 0
KWE2 260028Z 17022KT 28/19 A2993 RMK A01 T02760188  RH  059%=      5-min Rain = 0
KWE2 260029Z 17021KT 28/19 A2993 RMK A01 T02760188  RH  059%=      5-min Rain = 0
KWE2 260030Z 17021KT 28/19 A2993 RMK A01 T02750187  RH  059%=      5-min Rain = 0
KWE2 260031Z 17020KT 28/19 A2993 RMK A01 T02750187  RH  059%=      5-min Rain = 0
KWE2 260032Z 17021G26KT 28/19 A2992 RMK A01 T02750187  RH  059%=      5-min Rain = 0
KWE2 260033Z 17022KT 28/19 A2993 RMK A01 T02750187  RH  059%=      5-min Rain = 0
KWE2 260034Z 17019KT 27/19 A2993 RMK A01 T02740188  RH  059%=      5-min Rain = 0
KWE2 260035Z 17020KT 27/19 A2993 RMK A01 T02740187  RH  059%=      5-min Rain = 0
KWE2 260036Z 17020KT 27/19 A2993 RMK A01 T02740187  RH  059%=      5-min Rain = 0
KWE2 260037Z 17021KT 27/19 A2993 RMK A01 T02740188  RH  059%=      5-min Rain = 0
KWE2 260038Z 18022KT 27/19 A2993 RMK A01 T02740188  RH  059%=      5-min Rain = 0
KWE2 260039Z 18021KT 27/19 A2993 RMK A01 T02730188  RH  060%=      5-min Rain = 0
KWE2 260040Z 18021KT 27/19 A2993 RMK A01 T02720188  RH  060%=      5-min Rain = 0
KWE2 260041Z 18021KT 27/19 A2993 RMK A01 T02720188  RH  060%=      5-min Rain = 0
KWE2 260042Z 18018G25KT 27/19 A2994 RMK A01 T02720189  RH  060%=      5-min Rain = 0
KWE2 260043Z 18020KT 27/19 A2994 RMK A01 T02720189  RH  061%=      5-min Rain = 0
KWE2 260044Z 17019KT 27/19 A2994 RMK A01 T02720189  RH  061%=      5-min Rain = 0
KWE2 260045Z 18018KT 27/19 A2994 RMK A01 T02720189  RH  061%=      5-min Rain = 0
KWE2 260046Z 18021KT 27/19 A2994 RMK A01 T02720189  RH  061%=      5-min Rain = 0
KWE2 260047Z 17021KT 27/19 A2994 RMK A01 T02720190  RH  061%=      5-min Rain = 0
KWE2 260048Z 17020G25KT 27/19 A2994 RMK A01 T02710189  RH  061%=      5-min Rain = 0
KWE2 260049Z 17017KT 27/19 A2994 RMK A01 T02710189  RH  061%=      5-min Rain = 0
KWE2 260050Z 18020KT 27/19 A2994 RMK A01 T02710189  RH  061%=      5-min Rain = 0
KWE2 260051Z 18020KT 27/19 A2994 RMK A01 T02710189  RH  061%=      5-min Rain = 0
KWE2 260052Z 17021KT 27/19 A2994 RMK A01 T02690189  RH  061%=      5-min Rain = 0
KWE2 260053Z 17020KT 27/19 A2994 RMK A01 T02680188  RH  062%=      5-min Rain = 0
KWE2 260054Z 17020KT 27/19 A2994 RMK A01 T02670188  RH  062%=      5-min Rain = 0
KWE2 260055Z 17022KT 27/19 A2994 RMK A01 T02670188  RH  062%=      5-min Rain = 0
KWE2 260056Z 17019KT 27/19 A2994 RMK A01 T02670188  RH  062%=      5-min Rain = 0
KWE2 260057Z 17018G24KT 27/19 A2994 RMK A01 T02660188  RH  062%=      5-min Rain = 0
KWE2 260058Z 17020KT 27/19 A2994 RMK A01 T02660189  RH  063%=      5-min Rain = 0
KWE2 260059Z 17020KT 27/19 A2994 RMK A01 T02660189  RH  063%=      5-min Rain = 0
KWE2 260100Z 17021KT 27/19 A2994 RMK A01 T02650189  RH  063%=      5-min Rain = 0
KWE2 260101Z 17021KT 27/19 A2994 RMK A01 T02650189  RH  063%=      5-min Rain = 0
KWE2 260102Z 17021KT 27/19 A2994 RMK A01 T02650190  RH  063%=      5-min Rain = 0
KWE2 260103Z 16020G25KT 27/19 A2994 RMK A01 T02650189  RH  063%=      5-min Rain = 0
KWE2 260104Z 17018KT 27/19 A2994 RMK A01 T02650190  RH  063%=      5-min Rain = 0
KWE2 260105Z 17020KT 27/19 A2994 RMK A01 T02650190  RH  063%=      5-min Rain = 0
KWE2 260106Z 17019KT 27/19 A2994 RMK A01 T02650190  RH  063%=      5-min Rain = 0
KWE2 260107Z 17019KT 27/19 A2994 RMK A01 T02650190  RH  064%=      5-min Rain = 0
KWE2 260108Z 17018KT 26/19 A2993 RMK A01 T02640190  RH  064%=      5-min Rain = 0
KWE2 260109Z 17021KT 26/19 A2993 RMK A01 T02640189  RH  063%=      5-min Rain = 0
KWE2 260110Z 17019KT 26/19 A2993 RMK A01 T02630188  RH  063%=      5-min Rain = 0
KWE2 260111Z 17021KT 26/19 A2993 RMK A01 T02630188  RH  063%=      5-min Rain = 0
KWE2 260112Z 17021KT 26/19 A2993 RMK A01 T02630189  RH  064%=      5-min Rain = 0
KWE2 260113Z 17021KT 26/19 A2993 RMK A01 T02620189  RH  064%=      5-min Rain = 0
KWE2 260114Z 17018KT 26/19 A2993 RMK A01 T02620189  RH  064%=      5-min Rain = 0
KWE2 260115Z 17020KT 26/19 A2993 RMK A01 T02620189  RH  064%=      5-min Rain = 0
KWE2 260116Z 17019KT 26/19 A2993 RMK A01 T02620189  RH  064%=      5-min Rain = 0
KWE2 260117Z 17019KT 26/19 A2993 RMK A01 T02610189  RH  065%=      5-min Rain = 0
KWE2 260118Z 17019KT 26/19 A2993 RMK A01 T02610189  RH  065%=      5-min Rain = 0
KWE2 260119Z 17018G23KT 26/19 A2993 RMK A01 T02600189  RH  065%=      5-min Rain = 0
KWE2 260120Z 17021KT 26/19 A2993 RMK A01 T02600189  RH  065%=      5-min Rain = 0
KWE2 260121Z 16019KT 26/19 A2993 RMK A01 T02590189  RH  065%=      5-min Rain = 0
KWE2 260122Z 17020KT 26/19 A2993 RMK A01 T02590190  RH  065%=      5-min Rain = 0
KWE2 260123Z 17020KT 26/19 A2993 RMK A01 T02590190  RH  066%=      5-min Rain = 0
KWE2 260124Z 17020KT 26/19 A2993 RMK A01 T02590190  RH  066%=      5-min Rain = 0
KWE2 260125Z 17021KT 26/19 A2993 RMK A01 T02580189  RH  066%=      5-min Rain = 0
KWE2 260126Z 17020KT 26/19 A2993 RMK A01 T02580190  RH  066%=      5-min Rain = 0
KWE2 260127Z 17020KT 26/19 A2993 RMK A01 T02580189  RH  066%=      5-min Rain = 0
KWE2 260128Z 17019KT 26/19 A2993 RMK A01 T02580190  RH  066%=      5-min Rain = 0
KWE2 260129Z 17019KT 26/19 A2993 RMK A01 T02580190  RH  066%=      5-min Rain = 0
KWE2 260130Z 17018G23KT 26/19 A2993 RMK A01 T02570190  RH  066%=      5-min Rain = 0
KWE2 260131Z 17016KT 26/19 A2993 RMK A01 T02560190  RH  067%=      5-min Rain = 0
KWE2 260132Z 17018KT 26/19 A2993 RMK A01 T02560190  RH  067%=      5-min Rain = 0
KWE2 260133Z 16015KT 26/19 A2994 RMK A01 T02560190  RH  067%=      5-min Rain = 0
KWE2 260134Z 16016KT 26/19 A2994 RMK A01 T02550190  RH  067%=      5-min Rain = 0
KWE2 260135Z 16019KT 26/19 A2994 RMK A01 T02550190  RH  067%=      5-min Rain = 0
KWE2 260136Z 17020G25KT 26/19 A2994 RMK A01 T02550190  RH  067%=      5-min Rain = 0
KWE2 260137Z 16021KT 26/19 A2994 RMK A01 T02550189  RH  067%=      5-min Rain = 0
KWE2 260138Z 17017KT 26/19 A2994 RMK A01 T02550189  RH  067%=      5-min Rain = 0
KWE2 260139Z 17018KT 25/19 A2994 RMK A01 T02540189  RH  067%=      5-min Rain = 0
KWE2 260140Z 17020KT 25/19 A2994 RMK A01 T02540189  RH  067%=      5-min Rain = 0
KWE2 260141Z 17020KT 25/19 A2994 RMK A01 T02540189  RH  067%=      5-min Rain = 0
KWE2 260142Z 16019KT 25/19 A2994 RMK A01 T02540189  RH  067%=      5-min Rain = 0
KWE2 260143Z 17021G27KT 25/19 A2994 RMK A01 T02540189  RH  067%=      5-min Rain = 0
KWE2 260144Z 17022KT 25/19 A2994 RMK A01 T02540189  RH  067%=      5-min Rain = 0
KWE2 260145Z 16021G26KT 25/19 A2994 RMK A01 T02540189  RH  067%=      5-min Rain = 0
KWE2 260146Z 17021KT 25/19 A2994 RMK A01 T02540189  RH  067%=      5-min Rain = 0
KWE2 260147Z 17022KT 25/19 A2994 RMK A01 T02540189  RH  067%=      5-min Rain = 0
KWE2 260148Z 17019KT 25/19 A2994 RMK A01 T02540189  RH  067%=      5-min Rain = 0
KWE2 260149Z 17019G24KT 25/19 A2994 RMK A01 T02540189  RH  067%=      5-min Rain = 0
KWE2 260150Z 17019G24KT 25/19 A2994 RMK A01 T02530189  RH  068%=      5-min Rain = 0
KWE2 260151Z 17019KT 25/19 A2994 RMK A01 T02540190  RH  068%=      5-min Rain = 0
KWE2 260152Z 17018KT 25/19 A2994 RMK A01 T02530189  RH  068%=      5-min Rain = 0
KWE2 260153Z 16017KT 25/19 A2994 RMK A01 T02520189  RH  068%=      5-min Rain = 0
KWE2 260154Z 16018KT 25/19 A2994 RMK A01 T02520189  RH  068%=      5-min Rain = 0
KWE2 260155Z 16018KT 25/19 A2994 RMK A01 T02520190  RH  068%=      5-min Rain = 0
KWE2 260156Z 16017KT 25/19 A2994 RMK A01 T02510189  RH  069%=      5-min Rain = 0
KWE2 260157Z 16016KT 25/19 A2994 RMK A01 T02500189  RH  069%=      5-min Rain = 0
KWE2 260158Z 16015KT 25/19 A2994 RMK A01 T02500189  RH  069%=      5-min Rain = 0
KWE2 260159Z 16016KT 25/19 A2994 RMK A01 T02490190  RH  070%=      5-min Rain = 0
KWE2 260200Z 16019KT 25/19 A2994 RMK A01 T02490190  RH  070%=      5-min Rain = 0
KWE2 260201Z 16018KT 25/19 A2994 RMK A01 T02490189  RH  070%=      5-min Rain = 0
KWE2 260202Z 16019KT 25/19 A2993 RMK A01 T02490189  RH  070%=      5-min Rain = 0
KWE2 260203Z 16021KT 25/19 A2994 RMK A01 T02490189  RH  069%=      5-min Rain = 0
KWE2 260204Z 16020KT 25/19 A2994 RMK A01 T02500189  RH  069%=      5-min Rain = 0
KWE2 260205Z 16022KT 25/19 A2994 RMK A01 T02490189  RH  069%=      5-min Rain = 0
KWE2 260206Z 16022KT 25/19 A2993 RMK A01 T02490189  RH  069%=      5-min Rain = 0
KWE2 260207Z 16018G23KT 25/19 A2994 RMK A01 T02500189  RH  069%=      5-min Rain = 0
KWE2 260208Z 16019KT 25/19 A2994 RMK A01 T02490189  RH  069%=      5-min Rain = 0
KWE2 260209Z 16022KT 25/19 A2993 RMK A01 T02490189  RH  069%=      5-min Rain = 0
KWE2 260210Z 16021KT 25/19 A2993 RMK A01 T02490188  RH  069%=      5-min Rain = 0
KWE2 260211Z 16022KT 25/19 A2993 RMK A01 T02490188  RH  069%=      5-min Rain = 0
KWE2 260212Z 16020KT 25/19 A2993 RMK A01 T02490188  RH  069%=      5-min Rain = 0
KWE2 260213Z 16019KT 25/19 A2993 RMK A01 T02490188  RH  069%=      5-min Rain = 0
KWE2 260214Z 16018KT 25/19 A2994 RMK A01 T02480188  RH  069%=      5-min Rain = 0
KWE2 260215Z 16019KT 25/19 A2994 RMK A01 T02470188  RH  070%=      5-min Rain = 0
KWE2 260216Z 16019KT 25/19 A2994 RMK A01 T02470188  RH  070%=      5-min Rain = 0
KWE2 260217Z 16020KT 25/19 A2994 RMK A01 T02470188  RH  070%=      5-min Rain = 0
KWE2 260218Z 16020KT 25/19 A2994 RMK A01 T02470188  RH  070%=      5-min Rain = 0
KWE2 260219Z 16019KT 25/19 A2994 RMK A01 T02470188  RH  070%=      5-min Rain = 0
KWE2 260220Z 16016KT 25/19 A2994 RMK A01 T02470188  RH  070%=      5-min Rain = 0
KWE2 260221Z 16017KT 25/19 A2994 RMK A01 T02460188  RH  070%=      5-min Rain = 0
KWE2 260222Z 16016KT 25/19 A2994 RMK A01 T02450188  RH  070%=      5-min Rain = 0
KWE2 260223Z 16016KT 25/19 A2994 RMK A01 T02450188  RH  071%=      5-min Rain = 0
KWE2 260224Z 16016KT 24/19 A2994 RMK A01 T02440188  RH  071%=      5-min Rain = 0
KWE2 260225Z 16015KT 24/19 A2994 RMK A01 T02440188  RH  071%=      5-min Rain = 0
KWE2 260226Z 16015KT 24/19 A2994 RMK A01 T02430188  RH  071%=      5-min Rain = 0
KWE2 260227Z 16015KT 24/19 A2994 RMK A01 T02430188  RH  071%=      5-min Rain = 0
KWE2 260228Z 16015KT 24/19 A2994 RMK A01 T02430188  RH  071%=      5-min Rain = 0
KWE2 260229Z 16014KT 24/19 A2994 RMK A01 T02430188  RH  071%=      5-min Rain = 0
KWE2 260230Z 15015KT 24/19 A2994 RMK A01 T02420188  RH  072%=      5-min Rain = 0
KWE2 260231Z 16015KT 24/19 A2994 RMK A01 T02420188  RH  072%=      5-min Rain = 0
KWE2 260232Z 15014KT 24/19 A2994 RMK A01 T02420188  RH  072%=      5-min Rain = 0
KWE2 260233Z 15014KT 24/19 A2994 RMK A01 T02410188  RH  072%=      5-min Rain = 0
KWE2 260234Z 15014KT 24/19 A2994 RMK A01 T02410188  RH  072%=      5-min Rain = 0
KWE2 260235Z 15014KT 24/19 A2994 RMK A01 T02400188  RH  072%=      5-min Rain = 0
KWE2 260236Z 15012KT 24/19 A2994 RMK A01 T02400187  RH  072%=      5-min Rain = 0
KWE2 260237Z 15014KT 24/19 A2994 RMK A01 T02400187  RH  072%=      5-min Rain = 0
KWE2 260238Z 15013KT 24/19 A2994 RMK A01 T02390188  RH  073%=      5-min Rain = 0
KWE2 260239Z 15013KT 24/19 A2994 RMK A01 T02390187  RH  073%=      5-min Rain = 0
KWE2 260240Z 15013KT 24/19 A2994 RMK A01 T02380187  RH  073%=      5-min Rain = 0
KWE2 260241Z 15013KT 24/19 A2995 RMK A01 T02380187  RH  073%=      5-min Rain = 0
KWE2 260242Z 15014KT 24/19 A2995 RMK A01 T02370187  RH  073%=      5-min Rain = 0
KWE2 260243Z 15015KT 24/19 A2994 RMK A01 T02370187  RH  074%=      5-min Rain = 0
KWE2 260244Z 15016KT 24/19 A2994 RMK A01 T02370187  RH  074%=      5-min Rain = 0
KWE2 260245Z 15016KT 24/19 A2994 RMK A01 T02370187  RH  073%=      5-min Rain = 0
KWE2 260246Z 15014KT 24/19 A2994 RMK A01 T02370187  RH  073%=      5-min Rain = 0
KWE2 260247Z 15016G21KT 24/19 A2994 RMK A01 T02370187  RH  073%=      5-min Rain = 0
KWE2 260248Z 15017KT 24/19 A2994 RMK A01 T02370186  RH  073%=      5-min Rain = 0
KWE2 260249Z 15016KT 24/19 A2994 RMK A01 T02370187  RH  073%=      5-min Rain = 0
KWE2 260250Z 15015KT 24/19 A2994 RMK A01 T02380187  RH  073%=      5-min Rain = 0
KWE2 260251Z 15017KT 24/19 A2994 RMK A01 T02370187  RH  073%=      5-min Rain = 0
KWE2 260252Z 15016KT 24/19 A2995 RMK A01 T02370187  RH  073%=      5-min Rain = 0
KWE2 260253Z 15016KT 24/19 A2995 RMK A01 T02370187  RH  073%=      5-min Rain = 0
KWE2 260254Z 15016KT 24/19 A2995 RMK A01 T02360187  RH  074%=      5-min Rain = 0
KWE2 260255Z 15016KT 24/19 A2995 RMK A01 T02360186  RH  074%=      5-min Rain = 0
KWE2 260256Z 15015KT 24/19 A2995 RMK A01 T02360187  RH  074%=      5-min Rain = 0
KWE2 260257Z 15017KT 24/19 A2995 RMK A01 T02350186  RH  074%=      5-min Rain = 0
KWE2 260258Z 15015KT 24/19 A2995 RMK A01 T02350186  RH  074%=      5-min Rain = 0
KWE2 260259Z 15017KT 24/19 A2995 RMK A01 T02350186  RH  074%=      5-min Rain = 0
KWE2 260300Z 15016KT 24/19 A2995 RMK A01 T02350186  RH  074%=      5-min Rain = 0
KWE2 260301Z 15017KT 24/19 A2995 RMK A01 T02350186  RH  074%=      5-min Rain = 0
KWE2 260302Z 15015KT 23/19 A2995 RMK A01 T02340186  RH  074%=      5-min Rain = 0
KWE2 260303Z 15016KT 23/19 A2995 RMK A01 T02340186  RH  074%=      5-min Rain = 0
KWE2 260304Z 15016KT 23/19 A2995 RMK A01 T02340186  RH  074%=      5-min Rain = 0
KWE2 260305Z 16015KT 23/19 A2995 RMK A01 T02330185  RH  074%=      5-min Rain = 0
KWE2 260306Z 15017KT 23/19 A2995 RMK A01 T02330185  RH  074%=      5-min Rain = 0
KWE2 260307Z 15018KT 23/18 A2995 RMK A01 T02330184  RH  074%=      5-min Rain = 0
KWE2 260308Z 15017G23KT 24/18 A2995 RMK A01 T02350184  RH  073%=      5-min Rain = 0
KWE2 260309Z 16019KT 24/18 A2995 RMK A01 T02350182  RH  072%=      5-min Rain = 0
KWE2 260310Z 16017KT 24/18 A2995 RMK A01 T02360181  RH  071%=      5-min Rain = 0
KWE2 260311Z 16019KT 24/18 A2995 RMK A01 T02360180  RH  071%=      5-min Rain = 0
KWE2 260312Z 16020KT 24/18 A2996 RMK A01 T02360177  RH  070%=      5-min Rain = 0
KWE2 260313Z 16018G23KT 24/18 A2995 RMK A01 T02370177  RH  069%=      5-min Rain = 0
KWE2 260314Z 16018KT 24/18 A2996 RMK A01 T02370176  RH  069%=      5-min Rain = 0
KWE2 260315Z 16019KT 24/18 A2996 RMK A01 T02370175  RH  068%=      5-min Rain = 0
KWE2 260316Z 17017KT 24/17 A2996 RMK A01 T02370174  RH  068%=      5-min Rain = 0
KWE2 260317Z 17018KT 24/17 A2996 RMK A01 T02370173  RH  067%=      5-min Rain = 0
KWE2 260318Z 17019KT 24/17 A2996 RMK A01 T02370172  RH  067%=      5-min Rain = 0
KWE2 260319Z 17017KT 24/17 A2996 RMK A01 T02370171  RH  067%=      5-min Rain = 0
KWE2 260320Z 17016KT 24/17 A2996 RMK A01 T02370171  RH  067%=      5-min Rain = 0
KWE2 260321Z 17019KT 24/17 A2996 RMK A01 T02360171  RH  067%=      5-min Rain = 0
KWE2 260322Z 17018KT 24/17 A2996 RMK A01 T02370171  RH  067%=      5-min Rain = 0
KWE2 260323Z 17017KT 24/17 A2996 RMK A01 T02370171  RH  067%=      5-min Rain = 0
KWE2 260324Z 17016KT 24/17 A2996 RMK A01 T02370171  RH  067%=      5-min Rain = 0
KWE2 260325Z 17017KT 24/17 A2996 RMK A01 T02360171  RH  067%=      5-min Rain = 0
KWE2 260326Z 16016KT 24/17 A2996 RMK A01 T02350171  RH  067%=      5-min Rain = 0
KWE2 260327Z 16016KT 24/17 A2996 RMK A01 T02350171  RH  067%=      5-min Rain = 0
KWE2 260328Z 16015KT 24/17 A2996 RMK A01 T02350171  RH  067%=      5-min Rain = 0
KWE2 260329Z 16016KT 23/17 A2996 RMK A01 T02340170  RH  067%=      5-min Rain = 0
KWE2 260330Z 16017KT 23/17 A2996 RMK A01 T02340170  RH  067%=      5-min Rain = 0
KWE2 260331Z 16017KT 23/17 A2995 RMK A01 T02340170  RH  067%=      5-min Rain = 0
KWE2 260332Z 17016KT 23/17 A2996 RMK A01 T02340170  RH  067%=      5-min Rain = 0
KWE2 260333Z 16015KT 23/17 A2996 RMK A01 T02340170  RH  067%=      5-min Rain = 0
KWE2 260334Z 17014KT 23/17 A2996 RMK A01 T02340171  RH  068%=      5-min Rain = 0
KWE2 260335Z 17015KT 23/17 A2996 RMK A01 T02320170  RH  068%=      5-min Rain = 0
KWE2 260336Z 17016KT 23/17 A2996 RMK A01 T02320171  RH  068%=      5-min Rain = 0
KWE2 260337Z 17016KT 23/17 A2996 RMK A01 T02320171  RH  068%=      5-min Rain = 0
KWE2 260338Z 17016KT 23/17 A2996 RMK A01 T02320171  RH  068%=      5-min Rain = 0
KWE2 260339Z 17014KT 23/17 A2996 RMK A01 T02320171  RH  068%=      5-min Rain = 0
KWE2 260340Z 17014KT 23/17 A2996 RMK A01 T02310171  RH  069%=      5-min Rain = 0
KWE2 260341Z 17013KT 23/17 A2996 RMK A01 T02310171  RH  069%=      5-min Rain = 0
KWE2 260342Z 17016KT 23/17 A2996 RMK A01 T02300171  RH  069%=      5-min Rain = 0
KWE2 260343Z 17015KT 23/17 A2996 RMK A01 T02300171  RH  069%=      5-min Rain = 0
KWE2 260344Z 16015KT 23/17 A2996 RMK A01 T02300171  RH  069%=      5-min Rain = 0
KWE2 260345Z 16015KT 23/17 A2996 RMK A01 T02300171  RH  070%=      5-min Rain = 0
KWE2 260346Z 17014KT 23/17 A2996 RMK A01 T02300172  RH  070%=      5-min Rain = 0
KWE2 260347Z 16015KT 23/17 A2996 RMK A01 T02300172  RH  070%=      5-min Rain = 0
KWE2 260348Z 16016KT 23/17 A2996 RMK A01 T02290172  RH  070%=      5-min Rain = 0
KWE2 260349Z 16015KT 23/17 A2996 RMK A01 T02290172  RH  070%=      5-min Rain = 0
KWE2 260350Z 16015KT 23/17 A2996 RMK A01 T02290173  RH  070%=      5-min Rain = 0
KWE2 260351Z 17015KT 23/17 A2996 RMK A01 T02280172  RH  071%=      5-min Rain = 0
KWE2 260352Z 16016KT 23/17 A2996 RMK A01 T02280173  RH  071%=      5-min Rain = 0
KWE2 260353Z 16014KT 23/17 A2996 RMK A01 T02280173  RH  071%=      5-min Rain = 0
KWE2 260354Z 17015KT 23/17 A2996 RMK A01 T02280173  RH  071%=      5-min Rain = 0
KWE2 260355Z 17015KT 23/17 A2996 RMK A01 T02270173  RH  071%=      5-min Rain = 0
KWE2 260356Z 17015KT 23/17 A2996 RMK A01 T02270173  RH  072%=      5-min Rain = 0
KWE2 260357Z 17013KT 23/17 A2996 RMK A01 T02270174  RH  072%=      5-min Rain = 0
KWE2 260358Z 17013KT 23/17 A2996 RMK A01 T02270174  RH  072%=      5-min Rain = 0
KWE2 260359Z 17014KT 23/17 A2996 RMK A01 T02260174  RH  072%=      5-min Rain = 0
KWE2 260400Z 17012KT 23/17 A2996 RMK A01 T02250174  RH  072%=      5-min Rain = 0
KWE2 260401Z 17011KT 23/17 A2996 RMK A01 T02250174  RH  073%=      5-min Rain = 0
KWE2 260402Z 17013KT 22/17 A2996 RMK A01 T02240174  RH  073%=      5-min Rain = 0
KWE2 260403Z 17012KT 22/17 A2996 RMK A01 T02240174  RH  073%=      5-min Rain = 0
KWE2 260404Z 17012KT 22/17 A2996 RMK A01 T02240174  RH  073%=      5-min Rain = 0
KWE2 260405Z 17012KT 22/17 A2996 RMK A01 T02240174  RH  073%=      5-min Rain = 0
KWE2 260406Z 17013KT 22/17 A2996 RMK A01 T02240174  RH  074%=      5-min Rain = 0
KWE2 260407Z 17013KT 22/17 A2996 RMK A01 T02230174  RH  074%=      5-min Rain = 0
KWE2 260408Z 17012KT 22/17 A2996 RMK A01 T02230174  RH  074%=      5-min Rain = 0
KWE2 260409Z 17011KT 22/17 A2996 RMK A01 T02230174  RH  074%=      5-min Rain = 0
KWE2 260410Z 17012KT 22/18 A2996 RMK A01 T02230175  RH  074%=      5-min Rain = 0
KWE2 260411Z 17012KT 22/18 A2996 RMK A01 T02230175  RH  074%=      5-min Rain = 0
KWE2 260412Z 17011KT 22/18 A2996 RMK A01 T02230175  RH  074%=      5-min Rain = 0
KWE2 260413Z 18013KT 22/18 A2996 RMK A01 T02230176  RH  075%=      5-min Rain = 0
KWE2 260414Z 18012KT 22/18 A2996 RMK A01 T02220175  RH  075%=      5-min Rain = 0
KWE2 260415Z 18011KT 22/18 A2996 RMK A01 T02230176  RH  075%=      5-min Rain = 0
KWE2 260416Z 18011KT 22/18 A2996 RMK A01 T02220176  RH  075%=      5-min Rain = 0
KWE2 260417Z 18011KT 22/18 A2996 RMK A01 T02220176  RH  075%=      5-min Rain = 0
KWE2 260418Z 18012KT 22/18 A2996 RMK A01 T02210176  RH  076%=      5-min Rain = 0
KWE2 260419Z 18011KT 22/18 A2996 RMK A01 T02210176  RH  076%=      5-min Rain = 0
KWE2 260420Z 17010KT 22/18 A2996 RMK A01 T02210177  RH  076%=      5-min Rain = 0
KWE2 260421Z 18010KT 22/18 A2996 RMK A01 T02200177  RH  076%=      5-min Rain = 0
KWE2 260422Z 17011KT 22/18 A2996 RMK A01 T02200176  RH  076%=      5-min Rain = 0
KWE2 260423Z 18010KT 22/18 A2996 RMK A01 T02200177  RH  077%=      5-min Rain = 0
KWE2 260424Z 17011KT 22/18 A2996 RMK A01 T02190177  RH  077%=      5-min Rain = 0
KWE2 260425Z 17011KT 22/18 A2996 RMK A01 T02200177  RH  077%=      5-min Rain = 0
KWE2 260426Z 17011KT 22/18 A2996 RMK A01 T02190177  RH  077%=      5-min Rain = 0
KWE2 260427Z 17010KT 22/18 A2996 RMK A01 T02190177  RH  077%=      5-min Rain = 0
KWE2 260428Z 17011KT 22/18 A2996 RMK A01 T02190178  RH  077%=      5-min Rain = 0
KWE2 260429Z 18011KT 22/18 A2996 RMK A01 T02190178  RH  077%=      5-min Rain = 0
KWE2 260430Z 17011KT 22/18 A2996 RMK A01 T02190178  RH  078%=      5-min Rain = 0
KWE2 260431Z 17011KT 22/18 A2996 RMK A01 T02180178  RH  078%=      5-min Rain = 0
KWE2 260432Z 17011KT 22/18 A2996 RMK A01 T02180178  RH  078%=      5-min Rain = 0
KWE2 260433Z 18012KT 22/18 A2996 RMK A01 T02180179  RH  078%=      5-min Rain = 0
KWE2 260434Z 17012KT 22/18 A2996 RMK A01 T02180178  RH  078%=      5-min Rain = 0
KWE2 260435Z 17011KT 22/18 A2997 RMK A01 T02180178  RH  078%=      5-min Rain = 0
KWE2 260436Z 17012KT 22/18 A2997 RMK A01 T02180179  RH  078%=      5-min Rain = 0
KWE2 260437Z 17011KT 22/18 A2996 RMK A01 T02180179  RH  079%=      5-min Rain = 0
KWE2 260438Z 17011KT 22/18 A2996 RMK A01 T02180179  RH  079%=      5-min Rain = 0
KWE2 260439Z 18011KT 22/18 A2997 RMK A01 T02180179  RH  079%=      5-min Rain = 0
KWE2 260440Z 17012KT 22/18 A2996 RMK A01 T02170179  RH  079%=      5-min Rain = 0
KWE2 260441Z 17011KT 22/18 A2996 RMK A01 T02170179  RH  079%=      5-min Rain = 0
KWE2 260442Z 17012KT 22/18 A2996 RMK A01 T02170179  RH  079%=      5-min Rain = 0
KWE2 260443Z 17011KT 22/18 A2996 RMK A01 T02170179  RH  079%=      5-min Rain = 0
KWE2 260444Z 18011KT 22/18 A2997 RMK A01 T02170179  RH  079%=      5-min Rain = 0
KWE2 260445Z 18011KT 22/18 A2997 RMK A01 T02160179  RH  079%=      5-min Rain = 0
KWE2 260446Z 18012KT 22/18 A2997 RMK A01 T02160180  RH  080%=      5-min Rain = 0
KWE2 260447Z 18013KT 22/18 A2997 RMK A01 T02160180  RH  080%=      5-min Rain = 0
KWE2 260448Z 18013KT 22/18 A2997 RMK A01 T02170180  RH  079%=      5-min Rain = 0
KWE2 260449Z 18012KT 22/18 A2997 RMK A01 T02170180  RH  079%=      5-min Rain = 0
KWE2 260450Z 18012KT 22/18 A2997 RMK A01 T02180180  RH  079%=      5-min Rain = 0
KWE2 260451Z 18012KT 22/18 A2997 RMK A01 T02180180  RH  079%=      5-min Rain = 0
KWE2 260452Z 18011KT 22/18 A2997 RMK A01 T02180180  RH  079%=      5-min Rain = 0
KWE2 260453Z 18011KT 22/18 A2997 RMK A01 T02170180  RH  079%=      5-min Rain = 0
KWE2 260454Z 18011KT 22/18 A2997 RMK A01 T02170180  RH  080%=      5-min Rain = 0
KWE2 260455Z 18011KT 22/18 A2997 RMK A01 T02170180  RH  080%=      5-min Rain = 0
KWE2 260456Z 18011KT 22/18 A2997 RMK A01 T02170180  RH  080%=      5-min Rain = 0
KWE2 260457Z 18012KT 22/18 A2997 RMK A01 T02170180  RH  080%=      5-min Rain = 0
KWE2 260458Z 18011KT 22/18 A2997 RMK A01 T02170180  RH  080%=      5-min Rain = 0
KWE2 260459Z 18011KT 22/18 A2997 RMK A01 T02170180  RH  080%=      5-min Rain = 0

Page generated in 0.1427 seconds.